Time,TemperatureF,DewpointF,PressureIn,WindDirection,WindDirectionDegrees,WindSpeedMPH,WindSpeedGustMPH,Humidity,HourlyPrecipIn,Conditions,Clouds,dailyrainin,SoftwareType,DateUTC
2013-10-04 00:00:00,67.5,65.3,30.06,SW,225,2.0,5.0,93,0.00,,,0.00,meteohub,2013-10-04 04:00:00,
2013-10-04 00:31:00,67.5,65.3,30.06,SW,219,0.0,3.0,93,0.00,,,0.00,meteohub,2013-10-04 04:31:00,
2013-10-04 00:32:00,67.5,65.3,30.05,SW,227,2.0,3.0,93,0.00,,,0.00,meteohub,2013-10-04 04:32:00,
2013-10-04 00:34:00,67.5,65.3,30.05,SW,229,1.0,3.0,93,0.00,,,0.00,meteohub,2013-10-04 04:34:00,
2013-10-04 00:35:00,67.5,65.3,30.05,SW,229,1.0,3.0,93,0.00,,,0.00,meteohub,2013-10-04 04:35:00,
2013-10-04 00:36:00,67.5,65.3,30.05,WSW,252,2.0,3.0,93,0.00,,,0.00,meteohub,2013-10-04 04:36:00,
2013-10-04 00:37:00,67.6,65.5,30.05,WSW,254,3.0,3.0,93,0.00,,,0.00,meteohub,2013-10-04 04:37:00,
2013-10-04 00:40:00,67.6,65.5,30.05,WSW,251,0.0,3.0,93,0.00,,,0.00,meteohub,2013-10-04 04:40:00,
2013-10-04 00:41:00,67.6,65.5,30.05,WSW,251,0.0,3.0,93,0.00,,,0.00,meteohub,2013-10-04 04:41:00,
2013-10-04 00:42:00,67.6,65.5,30.05,WSW,251,0.0,3.0,93,0.00,,,0.00,meteohub,2013-10-04 04:42:00,
2013-10-04 00:43:00,67.6,65.5,30.05,WSW,251,0.0,3.0,93,0.00,,,0.00,meteohub,2013-10-04 04:43:00,
2013-10-04 00:45:00,67.6,65.5,30.05,SW,232,2.0,3.0,93,0.00,,,0.00,meteohub,2013-10-04 04:45:00,
2013-10-04 00:46:00,67.6,65.5,30.05,SW,232,0.0,3.0,93,0.00,,,0.00,meteohub,2013-10-04 04:46:00,
2013-10-04 00:47:00,67.6,65.5,30.05,SW,232,0.0,3.0,93,0.00,,,0.00,meteohub,2013-10-04 04:47:00,
2013-10-04 00:48:00,67.6,65.5,30.05,SW,232,1.0,3.0,93,0.00,,,0.00,meteohub,2013-10-04 04:48:00,
2013-10-04 00:50:00,67.6,65.5,30.05,SW,235,0.0,3.0,93,0.00,,,0.00,meteohub,2013-10-04 04:50:00,
2013-10-04 00:51:00,67.6,65.5,30.05,SW,235,1.0,3.0,93,0.00,,,0.00,meteohub,2013-10-04 04:51:00,
2013-10-04 00:53:00,67.6,65.5,30.05,SW,216,0.0,3.0,93,0.00,,,0.00,meteohub,2013-10-04 04:53:00,
2013-10-04 00:54:00,67.8,65.7,30.05,SW,220,1.0,3.0,93,0.00,,,0.00,meteohub,2013-10-04 04:54:00,
2013-10-04 00:55:00,67.6,65.5,30.05,SW,220,1.0,3.0,93,0.00,,,0.00,meteohub,2013-10-04 04:55:00,
2013-10-04 00:56:00,67.6,65.5,30.05,SW,220,0.0,3.0,93,0.00,,,0.00,meteohub,2013-10-04 04:56:00,
2013-10-04 00:59:00,67.6,65.5,30.05,SW,214,1.0,3.0,93,0.00,,,0.00,meteohub,2013-10-04 04:59:00,
2013-10-04 01:00:00,67.6,65.5,30.05,SW,234,1.0,4.0,93,0.00,,,0.00,meteohub,2013-10-04 05:00:00,
2013-10-04 01:01:00,67.6,65.5,30.05,SSW,208,0.0,4.0,93,0.00,,,0.00,meteohub,2013-10-04 05:01:00,
2013-10-04 01:02:00,67.6,65.5,30.05,SSW,208,0.0,4.0,93,0.00,,,0.00,meteohub,2013-10-04 05:02:00,
2013-10-04 01:03:00,67.6,65.5,30.05,SSW,199,0.0,4.0,93,0.00,,,0.00,meteohub,2013-10-04 05:03:00,
2013-10-04 01:04:00,67.6,65.5,30.05,WSW,241,2.0,4.0,93,0.00,,,0.00,meteohub,2013-10-04 05:04:00,
2013-10-04 01:05:00,67.6,65.5,30.05,WSW,240,0.0,4.0,93,0.00,,,0.00,meteohub,2013-10-04 05:05:00,
2013-10-04 01:06:00,67.6,65.5,30.05,SW,226,1.0,4.0,93,0.00,,,0.00,meteohub,2013-10-04 05:06:00,
2013-10-04 01:07:00,67.6,65.5,30.05,SW,226,1.0,4.0,93,0.00,,,0.00,meteohub,2013-10-04 05:07:00,
2013-10-04 01:08:00,67.6,65.5,30.05,SW,217,2.0,4.0,93,0.00,,,0.00,meteohub,2013-10-04 05:08:00,
2013-10-04 01:10:00,67.5,65.3,30.05,SSW,192,3.0,4.0,93,0.00,,,0.00,meteohub,2013-10-04 05:10:00,
2013-10-04 01:11:00,67.5,65.3,30.05,SSW,198,3.0,4.0,93,0.00,,,0.00,meteohub,2013-10-04 05:11:00,
2013-10-04 01:12:00,67.5,65.3,30.05,SSW,213,0.0,4.0,93,0.00,,,0.00,meteohub,2013-10-04 05:12:00,
2013-10-04 01:14:00,67.5,65.3,30.05,SSW,197,3.0,4.0,93,0.00,,,0.00,meteohub,2013-10-04 05:14:00,
2013-10-04 01:15:00,67.5,65.3,30.05,SW,220,2.0,4.0,93,0.00,,,0.00,meteohub,2013-10-04 05:15:00,
2013-10-04 01:18:00,67.5,65.3,30.05,SSW,200,3.0,4.0,93,0.00,,,0.00,meteohub,2013-10-04 05:18:00,
2013-10-04 01:19:00,67.5,65.3,30.05,WSW,240,3.0,4.0,93,0.00,,,0.00,meteohub,2013-10-04 05:19:00,
2013-10-04 01:20:00,67.5,65.3,30.05,SSW,201,3.0,4.0,93,0.00,,,0.00,meteohub,2013-10-04 05:20:00,
2013-10-04 01:22:00,67.6,65.5,30.05,SSW,198,3.0,4.0,93,0.00,,,0.00,meteohub,2013-10-04 05:22:00,
2013-10-04 01:23:00,67.6,65.5,30.05,WSW,251,3.0,4.0,93,0.00,,,0.00,meteohub,2013-10-04 05:23:00,
2013-10-04 01:24:00,67.6,65.5,30.05,SW,225,2.0,4.0,93,0.00,,,0.00,meteohub,2013-10-04 05:24:00,
2013-10-04 01:25:00,67.6,65.5,30.05,SW,221,2.0,5.0,93,0.00,,,0.00,meteohub,2013-10-04 05:25:00,
2013-10-04 01:27:00,67.6,65.5,30.05,SW,215,2.0,5.0,93,0.00,,,0.00,meteohub,2013-10-04 05:27:00,
2013-10-04 01:28:00,67.6,65.5,30.05,SW,217,2.0,5.0,93,0.00,,,0.00,meteohub,2013-10-04 05:28:00,
2013-10-04 01:29:00,67.5,65.3,30.05,SSW,196,2.0,5.0,93,0.00,,,0.00,meteohub,2013-10-04 05:29:00,
2013-10-04 01:30:00,67.5,65.3,30.05,SSW,209,2.0,5.0,93,0.00,,,0.00,meteohub,2013-10-04 05:30:00,
2013-10-04 01:31:00,67.5,65.3,30.05,SW,219,1.0,5.0,93,0.00,,,0.00,meteohub,2013-10-04 05:31:00,
2013-10-04 01:32:00,67.5,65.3,30.05,SW,232,1.0,5.0,93,0.00,,,0.00,meteohub,2013-10-04 05:32:00,
2013-10-04 01:33:00,67.5,65.3,30.05,WSW,242,2.0,5.0,93,0.00,,,0.00,meteohub,2013-10-04 05:33:00,
2013-10-04 01:35:00,67.5,65.3,30.05,South,186,3.0,5.0,93,0.00,,,0.00,meteohub,2013-10-04 05:35:00,
2013-10-04 01:36:00,67.5,65.3,30.05,SSW,208,1.0,5.0,93,0.00,,,0.00,meteohub,2013-10-04 05:36:00,
2013-10-04 01:37:00,67.5,65.3,30.05,SSW,207,2.0,5.0,93,0.00,,,0.00,meteohub,2013-10-04 05:37:00,
2013-10-04 01:38:00,67.5,65.3,30.05,SW,222,1.0,5.0,93,0.00,,,0.00,meteohub,2013-10-04 05:38:00,
2013-10-04 01:40:00,67.5,65.3,30.05,SW,221,1.0,4.0,93,0.00,,,0.00,meteohub,2013-10-04 05:40:00,
2013-10-04 01:41:00,67.5,65.3,30.05,SW,225,2.0,4.0,93,0.00,,,0.00,meteohub,2013-10-04 05:41:00,
2013-10-04 01:43:00,67.5,65.3,30.05,SW,225,0.0,4.0,93,0.00,,,0.00,meteohub,2013-10-04 05:43:00,
2013-10-04 01:44:00,67.5,65.3,30.05,SW,219,3.0,4.0,93,0.00,,,0.00,meteohub,2013-10-04 05:44:00,
2013-10-04 01:45:00,67.5,65.3,30.05,SW,219,1.0,4.0,93,0.00,,,0.00,meteohub,2013-10-04 05:45:00,
2013-10-04 01:46:00,67.5,65.3,30.05,SW,219,0.0,4.0,93,0.00,,,0.00,meteohub,2013-10-04 05:46:00,
2013-10-04 01:49:00,67.5,65.3,30.05,SW,235,0.0,4.0,93,0.00,,,0.00,meteohub,2013-10-04 05:49:00,
2013-10-04 01:50:00,67.5,65.3,30.05,SW,235,1.0,3.0,93,0.00,,,0.00,meteohub,2013-10-04 05:50:00,
2013-10-04 01:51:00,67.3,65.1,30.05,SW,235,1.0,3.0,93,0.00,,,0.00,meteohub,2013-10-04 05:51:00,
2013-10-04 01:54:00,67.3,65.1,30.04,SW,235,0.0,3.0,93,0.00,,,0.00,meteohub,2013-10-04 05:54:00,
2013-10-04 01:55:00,67.3,65.1,30.04,SW,235,0.0,3.0,93,0.00,,,0.00,meteohub,2013-10-04 05:55:00,
2013-10-04 01:56:00,67.3,65.1,30.04,SW,235,0.0,3.0,93,0.00,,,0.00,meteohub,2013-10-04 05:56:00,
2013-10-04 01:57:00,67.3,65.1,30.04,SW,235,0.0,3.0,93,0.00,,,0.00,meteohub,2013-10-04 05:57:00,
2013-10-04 01:59:00,67.3,65.1,30.04,SW,235,0.0,3.0,93,0.00,,,0.00,meteohub,2013-10-04 05:59:00,
2013-10-04 02:00:00,67.3,65.1,30.04,SW,235,0.0,3.0,93,0.00,,,0.00,meteohub,2013-10-04 06:00:00,
2013-10-04 02:01:00,67.3,65.1,30.04,SW,235,1.0,3.0,93,0.00,,,0.00,meteohub,2013-10-04 06:01:00,
2013-10-04 02:02:00,67.3,65.1,30.04,SW,235,1.0,3.0,93,0.00,,,0.00,meteohub,2013-10-04 06:02:00,
2013-10-04 02:05:00,67.3,65.1,30.04,SW,235,0.0,3.0,93,0.00,,,0.00,meteohub,2013-10-04 06:05:00,
2013-10-04 02:06:00,67.3,65.1,30.04,SW,235,0.0,2.0,93,0.00,,,0.00,meteohub,2013-10-04 06:06:00,
2013-10-04 02:07:00,67.3,65.1,30.04,SW,235,0.0,2.0,93,0.00,,,0.00,meteohub,2013-10-04 06:07:00,
2013-10-04 02:08:00,67.3,65.1,30.04,SW,235,0.0,2.0,93,0.00,,,0.00,meteohub,2013-10-04 06:08:00,
2013-10-04 02:10:00,67.3,65.1,30.04,SW,235,0.0,2.0,93,0.00,,,0.00,meteohub,2013-10-04 06:10:00,
2013-10-04 02:11:00,67.3,65.1,30.04,SW,235,1.0,2.0,93,0.00,,,0.00,meteohub,2013-10-04 06:11:00,
2013-10-04 02:13:00,67.3,65.1,30.04,SW,235,0.0,2.0,93,0.00,,,0.00,meteohub,2013-10-04 06:13:00,
2013-10-04 02:14:00,67.3,65.1,30.04,SW,235,0.0,2.0,93,0.00,,,0.00,meteohub,2013-10-04 06:14:00,
2013-10-04 02:15:00,67.3,65.1,30.04,SW,235,2.0,3.0,93,0.00,,,0.00,meteohub,2013-10-04 06:15:00,
2013-10-04 02:17:00,67.3,65.1,30.04,SW,235,1.0,3.0,93,0.00,,,0.00,meteohub,2013-10-04 06:17:00,
2013-10-04 02:19:00,67.3,65.5,30.04,SW,219,0.0,3.0,94,0.00,,,0.00,meteohub,2013-10-04 06:19:00,
2013-10-04 02:20:00,67.3,65.5,30.04,SW,226,0.0,3.0,94,0.00,,,0.00,meteohub,2013-10-04 06:20:00,
2013-10-04 02:22:00,67.3,65.5,30.04,SSW,202,0.0,3.0,94,0.00,,,0.00,meteohub,2013-10-04 06:22:00,
2013-10-04 02:24:00,67.3,65.5,30.04,SSW,202,1.0,3.0,94,0.00,,,0.00,meteohub,2013-10-04 06:24:00,
2013-10-04 02:25:00,67.3,65.5,30.04,SSW,202,2.0,3.0,94,0.00,,,0.00,meteohub,2013-10-04 06:25:00,
2013-10-04 02:26:00,67.3,65.5,30.04,SSW,208,0.0,3.0,94,0.00,,,0.00,meteohub,2013-10-04 06:26:00,
2013-10-04 02:27:00,67.3,65.5,30.04,SSW,207,2.0,3.0,94,0.00,,,0.00,meteohub,2013-10-04 06:27:00,
2013-10-04 02:28:00,67.5,65.7,30.04,SSW,207,0.0,3.0,94,0.00,,,0.00,meteohub,2013-10-04 06:28:00,
2013-10-04 02:29:00,67.5,65.7,30.04,SW,222,1.0,3.0,94,0.00,,,0.00,meteohub,2013-10-04 06:29:00,
2013-10-04 02:31:00,67.5,65.7,30.04,SW,222,1.0,3.0,94,0.00,,,0.00,meteohub,2013-10-04 06:31:00,
2013-10-04 02:32:00,67.5,65.7,30.04,SW,227,1.0,3.0,94,0.00,,,0.00,meteohub,2013-10-04 06:32:00,
2013-10-04 02:33:00,67.5,65.7,30.04,WSW,238,1.0,3.0,94,0.00,,,0.00,meteohub,2013-10-04 06:33:00,
2013-10-04 02:34:00,67.5,65.7,30.04,WSW,238,1.0,3.0,94,0.00,,,0.00,meteohub,2013-10-04 06:34:00,
2013-10-04 02:36:00,67.5,65.7,30.04,SSW,204,1.0,3.0,94,0.00,,,0.00,meteohub,2013-10-04 06:36:00,
2013-10-04 02:37:00,67.6,65.8,30.04,WSW,243,1.0,3.0,94,0.00,,,0.00,meteohub,2013-10-04 06:37:00,
2013-10-04 02:38:00,67.6,65.8,30.04,WSW,243,2.0,3.0,94,0.00,,,0.00,meteohub,2013-10-04 06:38:00,
2013-10-04 02:39:00,67.6,65.8,30.04,WSW,242,0.0,3.0,94,0.00,,,0.00,meteohub,2013-10-04 06:39:00,
2013-10-04 02:41:00,67.6,65.8,30.04,SW,234,2.0,3.0,94,0.00,,,0.00,meteohub,2013-10-04 06:41:00,
2013-10-04 02:43:00,67.6,65.8,30.04,SSW,213,2.0,3.0,94,0.00,,,0.00,meteohub,2013-10-04 06:43:00,
2013-10-04 02:45:00,67.6,65.8,30.04,SW,231,0.0,4.0,94,0.00,,,0.00,meteohub,2013-10-04 06:45:00,
2013-10-04 02:46:00,67.8,66.0,30.04,SW,236,5.0,5.0,94,0.00,,,0.00,meteohub,2013-10-04 06:46:00,
2013-10-04 02:48:00,67.8,66.0,30.04,SW,222,8.0,8.0,94,0.00,,,0.00,meteohub,2013-10-04 06:48:00,
2013-10-04 02:49:00,68.0,66.2,30.03,WSW,240,2.0,4.0,94,0.00,,,0.00,meteohub,2013-10-04 06:49:00,
2013-10-04 02:50:00,68.2,66.4,30.04,WSW,249,2.0,8.0,94,0.00,,,0.00,meteohub,2013-10-04 06:50:00,
2013-10-04 02:51:00,68.2,66.4,30.03,West,261,2.0,8.0,94,0.00,,,0.00,meteohub,2013-10-04 06:51:00,
2013-10-04 02:53:00,68.2,66.4,30.03,SSW,211,3.0,8.0,94,0.00,,,0.00,meteohub,2013-10-04 06:53:00,
2013-10-04 02:54:00,68.2,66.4,30.03,West,267,4.0,8.0,94,0.00,,,0.00,meteohub,2013-10-04 06:54:00,
2013-10-04 02:56:00,68.4,66.6,30.03,WSW,249,3.0,8.0,94,0.00,,,0.00,meteohub,2013-10-04 06:56:00,
2013-10-04 02:57:00,68.4,66.6,30.03,SW,215,3.0,8.0,94,0.00,,,0.00,meteohub,2013-10-04 06:57:00,
2013-10-04 02:58:00,68.4,66.6,30.03,SW,224,3.0,8.0,94,0.00,,,0.00,meteohub,2013-10-04 06:58:00,
2013-10-04 02:59:00,68.4,66.6,30.03,WSW,242,4.0,8.0,94,0.00,,,0.00,meteohub,2013-10-04 06:59:00,
2013-10-04 03:01:00,68.4,66.2,30.03,WSW,240,3.0,8.0,93,0.00,,,0.00,meteohub,2013-10-04 07:01:00,
2013-10-04 03:02:00,68.4,66.2,30.03,WSW,237,3.0,8.0,93,0.00,,,0.00,meteohub,2013-10-04 07:02:00,
2013-10-04 03:04:00,68.4,66.2,30.03,SW,236,3.0,8.0,93,0.00,,,0.00,meteohub,2013-10-04 07:04:00,
2013-10-04 03:05:00,68.4,66.2,30.03,WSW,242,2.0,7.0,93,0.00,,,0.00,meteohub,2013-10-04 07:05:00,
2013-10-04 03:06:00,68.4,66.2,30.03,WSW,246,3.0,7.0,93,0.00,,,0.00,meteohub,2013-10-04 07:06:00,
2013-10-04 03:07:00,68.4,66.2,30.03,WSW,242,3.0,7.0,93,0.00,,,0.00,meteohub,2013-10-04 07:07:00,
2013-10-04 03:09:00,68.4,66.2,30.03,SW,235,4.0,7.0,93,0.00,,,0.00,meteohub,2013-10-04 07:09:00,
2013-10-04 03:10:00,68.4,66.2,30.03,WSW,243,3.0,7.0,93,0.00,,,0.00,meteohub,2013-10-04 07:10:00,
2013-10-04 03:11:00,68.4,66.2,30.03,West,263,1.0,7.0,93,0.00,,,0.00,meteohub,2013-10-04 07:11:00,
2013-10-04 03:12:00,68.4,66.2,30.03,WSW,254,3.0,7.0,93,0.00,,,0.00,meteohub,2013-10-04 07:12:00,
2013-10-04 03:13:00,68.4,66.2,30.03,WSW,252,4.0,7.0,93,0.00,,,0.00,meteohub,2013-10-04 07:13:00,
2013-10-04 03:15:00,68.4,66.2,30.03,WSW,242,3.0,7.0,93,0.00,,,0.00,meteohub,2013-10-04 07:15:00,
2013-10-04 03:17:00,68.4,66.2,30.03,WSW,245,2.0,7.0,93,0.00,,,0.00,meteohub,2013-10-04 07:17:00,
2013-10-04 03:18:00,68.4,66.2,30.03,WSW,243,1.0,7.0,93,0.00,,,0.00,meteohub,2013-10-04 07:18:00,
2013-10-04 03:20:00,68.5,66.4,30.03,WSW,254,1.0,7.0,93,0.00,,,0.00,meteohub,2013-10-04 07:20:00,
2013-10-04 03:22:00,68.5,66.4,30.03,West,266,4.0,7.0,93,0.00,,,0.00,meteohub,2013-10-04 07:22:00,
2013-10-04 03:23:00,68.5,66.4,30.03,West,263,2.0,7.0,93,0.00,,,0.00,meteohub,2013-10-04 07:23:00,
2013-10-04 03:25:00,68.5,66.4,30.03,West,279,0.0,7.0,93,0.00,,,0.00,meteohub,2013-10-04 07:25:00,
2013-10-04 03:26:00,68.5,66.4,30.03,West,279,0.0,7.0,93,0.00,,,0.00,meteohub,2013-10-04 07:26:00,
2013-10-04 03:28:00,68.5,66.4,30.03,West,279,0.0,7.0,93,0.00,,,0.00,meteohub,2013-10-04 07:28:00,
2013-10-04 03:29:00,68.4,66.2,30.03,West,279,0.0,7.0,93,0.00,,,0.00,meteohub,2013-10-04 07:29:00,
2013-10-04 03:30:00,68.4,66.2,30.03,West,269,0.0,5.0,93,0.00,,,0.00,meteohub,2013-10-04 07:30:00,
2013-10-04 03:31:00,68.4,66.2,30.03,West,269,0.0,5.0,93,0.00,,,0.00,meteohub,2013-10-04 07:31:00,
2013-10-04 03:33:00,68.4,66.2,30.03,SW,234,2.0,5.0,93,0.00,,,0.00,meteohub,2013-10-04 07:33:00,
2013-10-04 03:34:00,68.4,66.2,30.03,WSW,237,3.0,5.0,93,0.00,,,0.00,meteohub,2013-10-04 07:34:00,
2013-10-04 03:36:00,68.4,66.2,30.03,WSW,244,1.0,5.0,93,0.00,,,0.00,meteohub,2013-10-04 07:36:00,
2013-10-04 03:38:00,68.4,66.2,30.03,WSW,255,2.0,5.0,93,0.00,,,0.00,meteohub,2013-10-04 07:38:00,
2013-10-04 03:39:00,68.4,66.2,30.03,WSW,256,3.0,5.0,93,0.00,,,0.00,meteohub,2013-10-04 07:39:00,
2013-10-04 03:40:00,68.4,66.2,30.03,WSW,254,2.0,4.0,93,0.00,,,0.00,meteohub,2013-10-04 07:40:00,
2013-10-04 03:41:00,68.4,66.2,30.03,WSW,254,1.0,4.0,93,0.00,,,0.00,meteohub,2013-10-04 07:41:00,
2013-10-04 03:44:00,68.4,66.2,30.03,WSW,254,3.0,4.0,93,0.00,,,0.00,meteohub,2013-10-04 07:44:00,
2013-10-04 03:45:00,68.4,66.2,30.03,WSW,254,2.0,4.0,93,0.00,,,0.00,meteohub,2013-10-04 07:45:00,
2013-10-04 03:46:00,68.4,66.2,30.03,WSW,254,1.0,4.0,93,0.00,,,0.00,meteohub,2013-10-04 07:46:00,
2013-10-04 03:49:00,68.4,66.2,30.03,WSW,254,2.0,4.0,93,0.00,,,0.00,meteohub,2013-10-04 07:49:00,
2013-10-04 03:50:00,68.4,66.2,30.03,WSW,254,1.0,4.0,93,0.00,,,0.00,meteohub,2013-10-04 07:50:00,
2013-10-04 03:52:00,68.4,66.2,30.03,WSW,254,2.0,4.0,93,0.00,,,0.00,meteohub,2013-10-04 07:52:00,
2013-10-04 03:53:00,68.4,66.2,30.03,WSW,254,1.0,4.0,93,0.00,,,0.00,meteohub,2013-10-04 07:53:00,
2013-10-04 03:54:00,68.4,66.2,30.03,WSW,254,2.0,4.0,93,0.00,,,0.00,meteohub,2013-10-04 07:54:00,
2013-10-04 03:55:00,68.4,66.2,30.03,WSW,254,1.0,4.0,93,0.00,,,0.00,meteohub,2013-10-04 07:55:00,
2013-10-04 03:56:00,68.4,66.2,30.03,WSW,254,2.0,4.0,93,0.00,,,0.00,meteohub,2013-10-04 07:56:00,
2013-10-04 03:57:00,68.4,66.2,30.03,WSW,254,1.0,4.0,93,0.00,,,0.00,meteohub,2013-10-04 07:57:00,
2013-10-04 03:58:00,68.4,66.2,30.03,WSW,254,3.0,4.0,93,0.00,,,0.00,meteohub,2013-10-04 07:58:00,
2013-10-04 03:59:00,68.4,66.2,30.03,WSW,254,2.0,4.0,93,0.00,,,0.00,meteohub,2013-10-04 07:59:00,
2013-10-04 04:00:00,68.4,66.2,30.03,WSW,254,3.0,3.0,93,0.00,,,0.00,meteohub,2013-10-04 08:00:00,
2013-10-04 04:01:00,68.4,66.2,30.03,WSW,254,1.0,3.0,93,0.00,,,0.00,meteohub,2013-10-04 08:01:00,
2013-10-04 04:02:00,68.4,66.2,30.03,WSW,254,1.0,3.0,93,0.00,,,0.00,meteohub,2013-10-04 08:02:00,
2013-10-04 04:03:00,68.4,66.2,30.03,WSW,254,2.0,3.0,93,0.00,,,0.00,meteohub,2013-10-04 08:03:00,
2013-10-04 04:05:00,68.4,66.2,30.03,SW,234,1.0,4.0,93,0.00,,,0.00,meteohub,2013-10-04 08:05:00,
2013-10-04 04:06:00,68.4,66.2,30.03,SW,234,1.0,4.0,93,0.00,,,0.00,meteohub,2013-10-04 08:06:00,
2013-10-04 04:07:00,68.4,66.2,30.03,SW,236,1.0,4.0,93,0.00,,,0.00,meteohub,2013-10-04 08:07:00,
2013-10-04 04:09:00,68.4,66.2,30.03,SW,236,2.0,4.0,93,0.00,,,0.00,meteohub,2013-10-04 08:09:00,
2013-10-04 04:10:00,68.4,66.2,30.03,SW,235,1.0,4.0,93,0.00,,,0.00,meteohub,2013-10-04 08:10:00,
2013-10-04 04:11:00,68.4,66.2,30.03,SW,234,1.0,4.0,93,0.00,,,0.00,meteohub,2013-10-04 08:11:00,
2013-10-04 04:12:00,68.4,66.2,30.03,WSW,239,1.0,4.0,93,0.00,,,0.00,meteohub,2013-10-04 08:12:00,
2013-10-04 04:15:00,68.4,66.2,30.03,WSW,238,1.0,4.0,93,0.00,,,0.00,meteohub,2013-10-04 08:15:00,
2013-10-04 04:16:00,68.4,66.2,30.03,SW,220,0.0,4.0,93,0.00,,,0.00,meteohub,2013-10-04 08:16:00,
2013-10-04 04:17:00,68.4,66.2,30.03,SW,220,0.0,4.0,93,0.00,,,0.00,meteohub,2013-10-04 08:17:00,
2013-10-04 04:20:00,68.2,66.0,30.03,SW,220,2.0,4.0,93,0.00,,,0.00,meteohub,2013-10-04 08:20:00,
2013-10-04 04:21:00,68.2,66.0,30.03,SW,220,0.0,4.0,93,0.00,,,0.00,meteohub,2013-10-04 08:21:00,
2013-10-04 04:22:00,68.2,66.0,30.03,SW,221,1.0,4.0,93,0.00,,,0.00,meteohub,2013-10-04 08:22:00,
2013-10-04 04:24:00,68.2,66.0,30.03,SW,215,1.0,4.0,93,0.00,,,0.00,meteohub,2013-10-04 08:24:00,
2013-10-04 04:25:00,68.2,66.0,30.03,SW,219,1.0,4.0,93,0.00,,,0.00,meteohub,2013-10-04 08:25:00,
2013-10-04 04:27:00,68.2,66.0,30.03,SW,220,1.0,4.0,93,0.00,,,0.00,meteohub,2013-10-04 08:27:00,
2013-10-04 04:28:00,68.4,66.2,30.03,SW,219,3.0,4.0,93,0.00,,,0.00,meteohub,2013-10-04 08:28:00,
2013-10-04 04:29:00,68.2,66.0,30.03,WSW,248,2.0,4.0,93,0.00,,,0.00,meteohub,2013-10-04 08:29:00,
2013-10-04 04:30:00,68.4,66.2,30.03,WSW,248,2.0,4.0,93,0.00,,,0.00,meteohub,2013-10-04 08:30:00,
2013-10-04 04:32:00,68.4,66.2,30.03,WSW,257,2.0,4.0,93,0.00,,,0.00,meteohub,2013-10-04 08:32:00,
2013-10-04 04:33:00,68.2,66.0,30.03,WSW,245,3.0,4.0,93,0.00,,,0.00,meteohub,2013-10-04 08:33:00,
2013-10-04 04:34:00,68.2,66.0,30.03,West,262,1.0,4.0,93,0.00,,,0.00,meteohub,2013-10-04 08:34:00,
2013-10-04 04:35:00,68.2,66.0,30.03,West,262,1.0,4.0,93,0.00,,,0.00,meteohub,2013-10-04 08:35:00,
2013-10-04 04:37:00,68.2,66.0,30.03,SW,216,3.0,4.0,93,0.00,,,0.00,meteohub,2013-10-04 08:37:00,
2013-10-04 04:38:00,68.2,66.0,30.03,WSW,240,2.0,4.0,93,0.00,,,0.00,meteohub,2013-10-04 08:38:00,
2013-10-04 04:39:00,68.2,66.0,30.03,SW,235,2.0,4.0,93,0.00,,,0.00,meteohub,2013-10-04 08:39:00,
2013-10-04 04:40:00,68.2,66.0,30.03,SW,236,2.0,4.0,93,0.00,,,0.00,meteohub,2013-10-04 08:40:00,
2013-10-04 04:41:00,68.2,66.0,30.03,SW,232,5.0,5.0,93,0.00,,,0.00,meteohub,2013-10-04 08:41:00,
2013-10-04 04:42:00,68.2,66.0,30.03,SW,234,1.0,4.0,93,0.00,,,0.00,meteohub,2013-10-04 08:42:00,
2013-10-04 04:43:00,68.2,66.0,30.03,WSW,240,2.0,4.0,93,0.00,,,0.00,meteohub,2013-10-04 08:43:00,
2013-10-04 04:44:00,68.2,66.0,30.03,SW,225,1.0,4.0,93,0.00,,,0.00,meteohub,2013-10-04 08:44:00,
2013-10-04 04:46:00,68.2,66.0,30.03,SSW,209,2.0,5.0,93,0.00,,,0.00,meteohub,2013-10-04 08:46:00,
2013-10-04 04:47:00,68.2,66.0,30.03,SW,226,2.0,5.0,93,0.00,,,0.00,meteohub,2013-10-04 08:47:00,
2013-10-04 04:49:00,68.2,66.0,30.04,WSW,240,2.0,5.0,93,0.00,,,0.00,meteohub,2013-10-04 08:49:00,
2013-10-04 04:50:00,68.2,66.0,30.03,WSW,240,1.0,5.0,93,0.00,,,0.00,meteohub,2013-10-04 08:50:00,
2013-10-04 04:52:00,68.2,66.0,30.04,WSW,255,2.0,5.0,93,0.00,,,0.00,meteohub,2013-10-04 08:52:00,
2013-10-04 04:53:00,68.2,66.0,30.04,West,262,4.0,5.0,93,0.00,,,0.00,meteohub,2013-10-04 08:53:00,
2013-10-04 04:54:00,68.2,66.0,30.03,West,260,4.0,5.0,93,0.00,,,0.00,meteohub,2013-10-04 08:54:00,
2013-10-04 04:55:00,68.2,66.0,30.04,WSW,244,3.0,5.0,93,0.00,,,0.00,meteohub,2013-10-04 08:55:00,
2013-10-04 04:57:00,68.0,65.8,30.04,WSW,255,2.0,5.0,93,0.00,,,0.00,meteohub,2013-10-04 08:57:00,
2013-10-04 04:58:00,68.0,65.8,30.04,West,259,2.0,5.0,93,0.00,,,0.00,meteohub,2013-10-04 08:58:00,
2013-10-04 04:59:00,68.0,65.8,30.03,West,259,1.0,5.0,93,0.00,,,0.00,meteohub,2013-10-04 08:59:00,
2013-10-04 05:00:00,68.0,65.8,30.03,West,259,1.0,5.0,93,0.00,,,0.00,meteohub,2013-10-04 09:00:00,
2013-10-04 05:02:00,68.0,65.8,30.03,West,259,1.0,6.0,93,0.00,,,0.00,meteohub,2013-10-04 09:02:00,
2013-10-04 05:03:00,68.0,65.8,30.03,West,259,3.0,6.0,93,0.00,,,0.00,meteohub,2013-10-04 09:03:00,
2013-10-04 05:04:00,68.0,65.8,30.04,West,259,3.0,6.0,93,0.00,,,0.00,meteohub,2013-10-04 09:04:00,
2013-10-04 05:05:00,68.0,65.8,30.04,WSW,246,0.0,6.0,93,0.00,,,0.00,meteohub,2013-10-04 09:05:00,
2013-10-04 05:08:00,67.8,65.7,30.04,WSW,246,0.0,6.0,93,0.00,,,0.00,meteohub,2013-10-04 09:08:00,
2013-10-04 05:09:00,67.8,65.7,30.04,WSW,246,1.0,6.0,93,0.00,,,0.00,meteohub,2013-10-04 09:09:00,
2013-10-04 05:10:00,67.8,65.7,30.03,WSW,246,0.0,4.0,93,0.00,,,0.00,meteohub,2013-10-04 09:10:00,
2013-10-04 05:11:00,67.8,65.7,30.03,WSW,246,0.0,4.0,93,0.00,,,0.00,meteohub,2013-10-04 09:11:00,
2013-10-04 05:13:00,67.8,65.7,30.04,WSW,246,1.0,4.0,93,0.00,,,0.00,meteohub,2013-10-04 09:13:00,
2013-10-04 05:14:00,67.8,65.7,30.04,WSW,246,1.0,4.0,93,0.00,,,0.00,meteohub,2013-10-04 09:14:00,
2013-10-04 05:15:00,67.8,65.7,30.04,WSW,246,0.0,4.0,93,0.00,,,0.00,meteohub,2013-10-04 09:15:00,
2013-10-04 05:16:00,67.8,65.7,30.04,WSW,246,0.0,4.0,93,0.00,,,0.00,meteohub,2013-10-04 09:16:00,
2013-10-04 05:19:00,67.8,65.7,30.04,WSW,246,1.0,4.0,93,0.00,,,0.00,meteohub,2013-10-04 09:19:00,
2013-10-04 05:20:00,67.8,65.7,30.04,WSW,246,1.0,4.0,93,0.00,,,0.00,meteohub,2013-10-04 09:20:00,
2013-10-04 05:21:00,67.6,65.5,30.04,WSW,248,3.0,4.0,93,0.00,,,0.00,meteohub,2013-10-04 09:21:00,
2013-10-04 05:24:00,67.6,65.5,30.04,WSW,257,3.0,4.0,93,0.00,,,0.00,meteohub,2013-10-04 09:24:00,
2013-10-04 05:25:00,67.6,65.5,30.04,WSW,242,2.0,4.0,93,0.00,,,0.00,meteohub,2013-10-04 09:25:00,
2013-10-04 05:26:00,67.6,65.5,30.04,WSW,250,3.0,4.0,93,0.00,,,0.00,meteohub,2013-10-04 09:26:00,
2013-10-04 05:29:00,67.6,65.5,30.04,WSW,240,3.0,4.0,93,0.00,,,0.00,meteohub,2013-10-04 09:29:00,
2013-10-04 05:30:00,67.6,65.5,30.04,WSW,239,2.0,5.0,93,0.00,,,0.00,meteohub,2013-10-04 09:30:00,
2013-10-04 05:31:00,67.6,65.5,30.04,West,259,1.0,5.0,93,0.00,,,0.00,meteohub,2013-10-04 09:31:00,
2013-10-04 05:32:00,67.6,65.5,30.04,West,259,2.0,5.0,93,0.00,,,0.00,meteohub,2013-10-04 09:32:00,
2013-10-04 05:34:00,67.6,65.5,30.04,WSW,252,2.0,5.0,93,0.00,,,0.00,meteohub,2013-10-04 09:34:00,
2013-10-04 05:36:00,67.6,65.5,30.04,WSW,252,1.0,5.0,93,0.00,,,0.00,meteohub,2013-10-04 09:36:00,
2013-10-04 05:37:00,67.6,65.5,30.04,WSW,252,1.0,5.0,93,0.00,,,0.00,meteohub,2013-10-04 09:37:00,
2013-10-04 05:39:00,67.6,65.5,30.04,WSW,249,2.0,5.0,93,0.00,,,0.00,meteohub,2013-10-04 09:39:00,
2013-10-04 05:40:00,67.6,65.5,30.04,WSW,249,1.0,5.0,93,0.00,,,0.00,meteohub,2013-10-04 09:40:00,
2013-10-04 05:41:00,67.6,65.5,30.04,WSW,249,2.0,5.0,93,0.00,,,0.00,meteohub,2013-10-04 09:41:00,
2013-10-04 05:42:00,67.6,65.5,30.04,WSW,248,2.0,5.0,93,0.00,,,0.00,meteohub,2013-10-04 09:42:00,
2013-10-04 05:45:00,67.6,65.5,30.04,West,261,2.0,5.0,93,0.00,,,0.00,meteohub,2013-10-04 09:45:00,
2013-10-04 05:46:00,67.6,65.5,30.04,West,261,3.0,4.0,93,0.00,,,0.00,meteohub,2013-10-04 09:46:00,
2013-10-04 05:48:00,67.6,65.5,30.04,West,261,3.0,4.0,93,0.00,,,0.00,meteohub,2013-10-04 09:48:00,
2013-10-04 05:50:00,67.6,65.5,30.04,West,261,1.0,4.0,93,0.00,,,0.00,meteohub,2013-10-04 09:50:00,
2013-10-04 05:51:00,67.6,65.5,30.04,West,261,1.0,4.0,93,0.00,,,0.00,meteohub,2013-10-04 09:51:00,
2013-10-04 05:53:00,67.6,65.5,30.04,West,261,1.0,4.0,93,0.00,,,0.00,meteohub,2013-10-04 09:53:00,
2013-10-04 05:54:00,67.6,65.5,30.04,West,261,0.0,4.0,93,0.00,,,0.00,meteohub,2013-10-04 09:54:00,
2013-10-04 05:55:00,67.5,65.3,30.04,WSW,250,1.0,3.0,93,0.00,,,0.00,meteohub,2013-10-04 09:55:00,
2013-10-04 05:56:00,67.6,65.5,30.04,SW,229,1.0,3.0,93,0.00,,,0.00,meteohub,2013-10-04 09:56:00,
2013-10-04 05:58:00,67.5,65.3,30.04,WSW,248,3.0,3.0,93,0.00,,,0.00,meteohub,2013-10-04 09:58:00,
2013-10-04 05:59:00,67.5,65.7,30.04,WSW,240,2.0,3.0,94,0.00,,,0.00,meteohub,2013-10-04 09:59:00,
2013-10-04 06:00:00,67.5,65.7,30.04,WSW,245,2.0,4.0,94,0.00,,,0.00,meteohub,2013-10-04 10:00:00,
2013-10-04 06:02:00,67.5,65.7,30.04,WSW,245,2.0,4.0,94,0.00,,,0.00,meteohub,2013-10-04 10:02:00,
2013-10-04 06:03:00,67.5,65.7,30.04,WSW,245,1.0,4.0,94,0.00,,,0.00,meteohub,2013-10-04 10:03:00,
2013-10-04 06:04:00,67.5,65.7,30.04,WSW,245,0.0,4.0,94,0.00,,,0.00,meteohub,2013-10-04 10:04:00,
2013-10-04 06:05:00,67.5,65.7,30.04,WSW,245,1.0,4.0,94,0.00,,,0.00,meteohub,2013-10-04 10:05:00,
2013-10-04 06:06:00,67.5,65.7,30.04,WSW,245,1.0,4.0,94,0.00,,,0.00,meteohub,2013-10-04 10:06:00,
2013-10-04 06:07:00,67.5,65.7,30.04,WSW,245,2.0,4.0,94,0.00,,,0.00,meteohub,2013-10-04 10:07:00,
2013-10-04 06:08:00,67.5,65.7,30.04,WSW,245,3.0,4.0,94,0.00,,,0.00,meteohub,2013-10-04 10:08:00,
2013-10-04 06:09:00,67.5,65.7,30.04,WSW,245,2.0,4.0,94,0.00,,,0.00,meteohub,2013-10-04 10:09:00,
2013-10-04 06:10:00,67.5,65.7,30.04,WSW,245,1.0,4.0,94,0.00,,,0.00,meteohub,2013-10-04 10:10:00,
2013-10-04 06:11:00,67.5,65.7,30.04,WSW,245,1.0,4.0,94,0.00,,,0.00,meteohub,2013-10-04 10:11:00,
2013-10-04 06:13:00,67.3,65.5,30.04,WSW,245,1.0,4.0,94,0.00,,,0.00,meteohub,2013-10-04 10:13:00,
2013-10-04 06:14:00,67.3,65.5,30.04,WSW,245,0.0,4.0,94,0.00,,,0.00,meteohub,2013-10-04 10:14:00,
2013-10-04 06:15:00,67.3,65.5,30.04,WSW,245,0.0,4.0,94,0.00,,,0.00,meteohub,2013-10-04 10:15:00,
2013-10-04 06:17:00,67.3,65.5,30.04,WSW,245,2.0,4.0,94,0.00,,,0.00,meteohub,2013-10-04 10:17:00,
2013-10-04 06:18:00,67.3,65.5,30.04,WSW,245,2.0,4.0,94,0.00,,,0.00,meteohub,2013-10-04 10:18:00,
2013-10-04 06:19:00,67.3,65.5,30.04,SW,234,1.0,4.0,94,0.00,,,0.00,meteohub,2013-10-04 10:19:00,
2013-10-04 06:22:00,67.3,65.5,30.04,SW,234,2.0,4.0,94,0.00,,,0.00,meteohub,2013-10-04 10:22:00,
2013-10-04 06:24:00,67.3,65.5,30.04,WSW,250,4.0,4.0,94,0.00,,,0.00,meteohub,2013-10-04 10:24:00,
2013-10-04 06:25:00,67.3,65.5,30.04,WSW,244,3.0,4.0,94,0.00,,,0.00,meteohub,2013-10-04 10:25:00,
2013-10-04 06:26:00,67.3,65.5,30.04,WSW,240,2.0,4.0,94,0.00,,,0.00,meteohub,2013-10-04 10:26:00,
2013-10-04 06:27:00,67.3,65.5,30.04,WSW,240,3.0,4.0,94,0.00,,,0.00,meteohub,2013-10-04 10:27:00,
2013-10-04 06:29:00,67.3,65.5,30.04,SW,232,1.0,4.0,94,0.00,,,0.00,meteohub,2013-10-04 10:29:00,
2013-10-04 06:30:00,67.3,65.5,30.04,SW,234,4.0,5.0,94,0.00,,,0.00,meteohub,2013-10-04 10:30:00,
2013-10-04 06:32:00,67.3,65.5,30.04,SW,225,1.0,5.0,94,0.00,,,0.00,meteohub,2013-10-04 10:32:00,
2013-10-04 06:33:00,67.3,65.5,30.04,WSW,257,2.0,5.0,94,0.00,,,0.00,meteohub,2013-10-04 10:33:00,
2013-10-04 06:35:00,67.3,65.5,30.04,West,265,2.0,5.0,94,0.00,,,0.00,meteohub,2013-10-04 10:35:00,
2013-10-04 06:36:00,67.3,65.5,30.04,West,265,1.0,5.0,94,0.00,,,0.00,meteohub,2013-10-04 10:36:00,
2013-10-04 06:37:00,67.3,65.5,30.04,WSW,242,3.0,5.0,94,0.00,,,0.00,meteohub,2013-10-04 10:37:00,
2013-10-04 06:38:00,67.3,65.5,30.04,WSW,238,1.0,5.0,94,0.00,,,0.00,meteohub,2013-10-04 10:38:00,
2013-10-04 06:39:00,67.3,65.5,30.04,SW,223,3.0,5.0,94,0.00,,,0.00,meteohub,2013-10-04 10:39:00,
2013-10-04 06:41:00,67.3,65.5,30.04,West,268,3.0,4.0,94,0.00,,,0.00,meteohub,2013-10-04 10:41:00,
2013-10-04 06:42:00,67.3,65.5,30.04,WSW,242,3.0,4.0,94,0.00,,,0.00,meteohub,2013-10-04 10:42:00,
2013-10-04 06:44:00,67.1,65.3,30.04,SW,234,3.0,4.0,94,0.00,,,0.00,meteohub,2013-10-04 10:44:00,
2013-10-04 06:46:00,67.1,65.3,30.04,WSW,240,4.0,8.0,94,0.00,,,0.00,meteohub,2013-10-04 10:46:00,
2013-10-04 06:47:00,67.1,65.3,30.04,SW,223,3.0,8.0,94,0.00,,,0.00,meteohub,2013-10-04 10:47:00,
2013-10-04 06:48:00,67.1,65.3,30.04,WSW,253,2.0,8.0,94,0.00,,,0.00,meteohub,2013-10-04 10:48:00,
2013-10-04 06:49:00,67.1,65.3,30.04,WSW,250,2.0,8.0,94,0.00,,,0.00,meteohub,2013-10-04 10:49:00,
2013-10-04 06:50:00,67.1,65.3,30.04,WSW,250,2.0,8.0,94,0.00,,,0.00,meteohub,2013-10-04 10:50:00,
2013-10-04 06:51:00,67.1,65.3,30.04,WSW,252,1.0,8.0,94,0.00,,,0.00,meteohub,2013-10-04 10:51:00,
2013-10-04 06:52:00,67.1,65.3,30.04,SW,225,4.0,8.0,94,0.00,,,0.00,meteohub,2013-10-04 10:52:00,
2013-10-04 06:53:00,67.3,65.5,30.05,WSW,244,3.0,8.0,94,0.00,,,0.00,meteohub,2013-10-04 10:53:00,
2013-10-04 06:54:00,67.3,65.5,30.04,WSW,253,2.0,8.0,94,0.00,,,0.00,meteohub,2013-10-04 10:54:00,
2013-10-04 06:55:00,67.3,65.5,30.05,WSW,240,3.0,8.0,94,0.00,,,0.00,meteohub,2013-10-04 10:55:00,
2013-10-04 06:57:00,67.3,65.5,30.05,West,273,2.0,8.0,94,0.00,,,0.00,meteohub,2013-10-04 10:57:00,
2013-10-04 06:58:00,67.3,65.5,30.05,West,270,1.0,8.0,94,0.00,,,0.00,meteohub,2013-10-04 10:58:00,
2013-10-04 06:59:00,67.3,65.1,30.05,WSW,258,2.0,8.0,93,0.00,,,0.00,meteohub,2013-10-04 10:59:00,
2013-10-04 07:00:00,67.1,64.9,30.05,WSW,241,2.0,8.0,93,0.00,,,0.00,meteohub,2013-10-04 11:00:00,
2013-10-04 07:03:00,67.1,64.9,30.05,West,259,3.0,6.0,93,0.00,,,0.00,meteohub,2013-10-04 11:03:00,
2013-10-04 07:04:00,66.9,64.8,30.05,WSW,249,3.0,6.0,93,0.00,,,0.00,meteohub,2013-10-04 11:04:00,
2013-10-04 07:05:00,66.9,64.8,30.05,WSW,249,2.0,5.0,93,0.00,,,0.00,meteohub,2013-10-04 11:05:00,
2013-10-04 07:06:00,66.9,64.8,30.05,WSW,254,3.0,5.0,93,0.00,,,0.00,meteohub,2013-10-04 11:06:00,
2013-10-04 07:08:00,66.9,64.8,30.05,WSW,250,4.0,5.0,93,0.00,,,0.00,meteohub,2013-10-04 11:08:00,
2013-10-04 07:09:00,66.9,64.8,30.05,WSW,243,3.0,5.0,93,0.00,,,0.00,meteohub,2013-10-04 11:09:00,
2013-10-04 07:10:00,66.7,64.6,30.05,SW,234,4.0,5.0,93,0.00,,,0.00,meteohub,2013-10-04 11:10:00,
2013-10-04 07:11:00,66.7,64.6,30.05,WSW,246,3.0,5.0,93,0.00,,,0.00,meteohub,2013-10-04 11:11:00,
2013-10-04 07:13:00,66.7,64.6,30.05,WSW,240,2.0,5.0,93,0.00,,,0.00,meteohub,2013-10-04 11:13:00,
2013-10-04 07:14:00,66.7,64.6,30.05,WSW,239,5.0,5.0,93,0.00,,,0.00,meteohub,2013-10-04 11:14:00,
2013-10-04 07:15:00,66.7,64.6,30.05,WSW,241,2.0,6.0,93,0.00,,,0.00,meteohub,2013-10-04 11:15:00,
2013-10-04 07:16:00,66.7,64.6,30.05,WSW,242,3.0,6.0,93,0.00,,,0.00,meteohub,2013-10-04 11:16:00,
2013-10-04 07:18:00,66.9,64.8,30.05,WSW,250,1.0,6.0,93,0.00,,,0.00,meteohub,2013-10-04 11:18:00,
2013-10-04 07:20:00,66.9,64.8,30.05,WSW,240,3.0,6.0,93,0.00,,,0.00,meteohub,2013-10-04 11:20:00,
2013-10-04 07:21:00,66.9,64.8,30.05,West,272,2.0,6.0,93,0.00,,,0.00,meteohub,2013-10-04 11:21:00,
2013-10-04 07:25:00,66.9,64.8,30.05,SW,231,3.0,6.0,93,0.00,,,0.00,meteohub,2013-10-04 11:25:00,
2013-10-04 07:26:00,66.9,64.8,30.05,SW,231,2.0,6.0,93,0.00,,,0.00,meteohub,2013-10-04 11:26:00,
2013-10-04 07:27:00,66.9,64.8,30.05,WSW,253,4.0,6.0,93,0.00,,,0.00,meteohub,2013-10-04 11:27:00,
2013-10-04 07:30:00,67.1,64.9,30.05,WSW,238,3.0,6.0,93,0.00,,,0.00,meteohub,2013-10-04 11:30:00,
2013-10-04 07:31:00,67.1,64.9,30.05,WSW,249,3.0,6.0,93,0.00,,,0.00,meteohub,2013-10-04 11:31:00,
2013-10-04 07:32:00,67.1,64.9,30.05,WSW,249,2.0,6.0,93,0.00,,,0.00,meteohub,2013-10-04 11:32:00,
2013-10-04 07:33:00,67.3,65.1,30.05,WSW,248,3.0,6.0,93,0.00,,,0.00,meteohub,2013-10-04 11:33:00,
2013-10-04 07:36:00,67.3,65.1,30.05,West,262,2.0,5.0,93,0.00,,,0.00,meteohub,2013-10-04 11:36:00,
2013-10-04 07:37:00,67.3,65.1,30.05,West,262,2.0,5.0,93,0.00,,,0.00,meteohub,2013-10-04 11:37:00,
2013-10-04 07:38:00,67.3,65.1,30.05,WSW,248,3.0,5.0,93,0.00,,,0.00,meteohub,2013-10-04 11:38:00,
2013-10-04 07:41:00,67.5,65.3,30.05,WSW,242,2.0,4.0,93,0.00,,,0.00,meteohub,2013-10-04 11:41:00,
2013-10-04 07:42:00,67.5,65.3,30.05,SW,225,2.0,4.0,93,0.00,,,0.00,meteohub,2013-10-04 11:42:00,
2013-10-04 07:43:00,67.5,65.3,30.05,WSW,242,3.0,4.0,93,0.00,,,0.00,meteohub,2013-10-04 11:43:00,
2013-10-04 07:44:00,67.5,65.3,30.05,WSW,242,4.0,4.0,93,0.00,,,0.00,meteohub,2013-10-04 11:44:00,
2013-10-04 07:45:00,67.5,65.3,30.05,WSW,238,3.0,4.0,93,0.00,,,0.00,meteohub,2013-10-04 11:45:00,
2013-10-04 07:46:00,67.5,65.3,30.05,WSW,244,3.0,4.0,93,0.00,,,0.00,meteohub,2013-10-04 11:46:00,
2013-10-04 07:47:00,67.5,65.3,30.05,SW,226,2.0,4.0,93,0.00,,,0.00,meteohub,2013-10-04 11:47:00,
2013-10-04 07:48:00,67.5,65.3,30.05,WSW,254,5.0,5.0,93,0.00,,,0.00,meteohub,2013-10-04 11:48:00,
2013-10-04 07:49:00,67.5,65.3,30.05,West,267,3.0,4.0,93,0.00,,,0.00,meteohub,2013-10-04 11:49:00,
2013-10-04 07:51:00,67.5,65.3,30.05,WSW,250,4.0,5.0,93,0.00,,,0.00,meteohub,2013-10-04 11:51:00,
2013-10-04 07:52:00,67.5,65.3,30.05,WSW,246,4.0,5.0,93,0.00,,,0.00,meteohub,2013-10-04 11:52:00,
2013-10-04 07:53:00,67.5,65.3,30.05,SW,232,4.0,5.0,93,0.00,,,0.00,meteohub,2013-10-04 11:53:00,
2013-10-04 07:54:00,67.6,65.3,30.05,SW,225,2.0,5.0,92,0.00,,,0.00,meteohub,2013-10-04 11:54:00,
2013-10-04 07:57:00,67.6,65.3,30.05,SW,236,4.0,7.0,92,0.00,,,0.00,meteohub,2013-10-04 11:57:00,
2013-10-04 07:58:00,67.6,65.3,30.05,SW,219,2.0,7.0,92,0.00,,,0.00,meteohub,2013-10-04 11:58:00,
2013-10-04 07:59:00,67.6,65.3,30.05,West,271,0.0,7.0,92,0.00,,,0.00,meteohub,2013-10-04 11:59:00,
2013-10-04 08:00:00,67.6,65.3,30.05,WSW,237,2.0,7.0,92,0.00,,,0.00,meteohub,2013-10-04 12:00:00,
2013-10-04 08:02:00,67.6,65.3,30.05,SW,222,2.0,7.0,92,0.00,,,0.00,meteohub,2013-10-04 12:02:00,
2013-10-04 08:03:00,67.6,65.3,30.05,SW,231,2.0,7.0,92,0.00,,,0.00,meteohub,2013-10-04 12:03:00,
2013-10-04 08:04:00,67.6,65.3,30.05,SW,236,2.0,7.0,92,0.00,,,0.00,meteohub,2013-10-04 12:04:00,
2013-10-04 08:06:00,67.6,65.3,30.05,WSW,240,2.0,7.0,92,0.00,,,0.00,meteohub,2013-10-04 12:06:00,
2013-10-04 08:08:00,67.6,65.3,30.05,SW,235,2.0,7.0,92,0.00,,,0.00,meteohub,2013-10-04 12:08:00,
2013-10-04 08:09:00,67.6,65.3,30.05,SW,234,3.0,7.0,92,0.00,,,0.00,meteohub,2013-10-04 12:09:00,
2013-10-04 08:10:00,67.6,65.3,30.05,SW,225,7.0,8.0,92,0.00,,,0.00,meteohub,2013-10-04 12:10:00,
2013-10-04 08:12:00,67.6,65.3,30.05,SSW,211,3.0,8.0,92,0.00,,,0.00,meteohub,2013-10-04 12:12:00,
2013-10-04 08:13:00,67.6,65.3,30.05,SW,233,4.0,8.0,92,0.00,,,0.00,meteohub,2013-10-04 12:13:00,
2013-10-04 08:15:00,67.6,65.3,30.05,WSW,238,3.0,8.0,92,0.00,,,0.00,meteohub,2013-10-04 12:15:00,
2013-10-04 08:16:00,67.6,65.3,30.05,WSW,257,2.0,8.0,92,0.00,,,0.00,meteohub,2013-10-04 12:16:00,
2013-10-04 08:17:00,67.6,65.3,30.05,WSW,250,3.0,8.0,92,0.00,,,0.00,meteohub,2013-10-04 12:17:00,
2013-10-04 08:18:00,67.6,65.3,30.05,West,259,7.0,8.0,92,0.00,,,0.00,meteohub,2013-10-04 12:18:00,
2013-10-04 08:20:00,67.8,65.5,30.05,SW,217,3.0,8.0,92,0.00,,,0.00,meteohub,2013-10-04 12:20:00,
2013-10-04 08:21:00,67.8,65.5,30.05,WSW,242,3.0,8.0,92,0.00,,,0.00,meteohub,2013-10-04 12:21:00,
2013-10-04 08:22:00,67.8,65.5,30.05,SW,217,2.0,8.0,92,0.00,,,0.00,meteohub,2013-10-04 12:22:00,
2013-10-04 08:24:00,67.8,65.5,30.05,WSW,238,3.0,8.0,92,0.00,,,0.00,meteohub,2013-10-04 12:24:00,
2013-10-04 08:26:00,68.0,65.3,30.05,WSW,240,3.0,7.0,91,0.00,,,0.00,meteohub,2013-10-04 12:26:00,
2013-10-04 08:27:00,68.0,65.3,30.05,West,271,3.0,7.0,91,0.00,,,0.00,meteohub,2013-10-04 12:27:00,
2013-10-04 08:30:00,68.2,65.5,30.05,WSW,254,5.0,8.0,91,0.00,,,0.00,meteohub,2013-10-04 12:30:00,
2013-10-04 08:31:00,68.2,65.5,30.06,SW,235,3.0,8.0,91,0.00,,,0.00,meteohub,2013-10-04 12:31:00,
2013-10-04 08:32:00,68.2,65.5,30.06,WSW,253,2.0,8.0,91,0.00,,,0.00,meteohub,2013-10-04 12:32:00,
2013-10-04 08:33:00,68.4,65.7,30.06,WSW,238,5.0,8.0,91,0.00,,,0.00,meteohub,2013-10-04 12:33:00,
2013-10-04 08:36:00,68.4,65.7,30.06,WSW,242,4.0,8.0,91,0.00,,,0.00,meteohub,2013-10-04 12:36:00,
2013-10-04 08:37:00,68.4,65.7,30.06,WSW,238,3.0,8.0,91,0.00,,,0.00,meteohub,2013-10-04 12:37:00,
2013-10-04 08:38:00,68.5,65.8,30.06,SW,226,3.0,8.0,91,0.00,,,0.00,meteohub,2013-10-04 12:38:00,
2013-10-04 08:41:00,68.7,66.0,30.06,SW,227,1.0,8.0,91,0.00,,,0.00,meteohub,2013-10-04 12:41:00,
2013-10-04 08:42:00,68.7,66.0,30.06,WSW,251,5.0,8.0,91,0.00,,,0.00,meteohub,2013-10-04 12:42:00,
2013-10-04 08:43:00,68.7,66.0,30.06,WSW,250,3.0,8.0,91,0.00,,,0.00,meteohub,2013-10-04 12:43:00,
2013-10-04 08:46:00,68.7,65.7,30.06,WSW,238,6.0,7.0,90,0.00,,,0.00,meteohub,2013-10-04 12:46:00,
2013-10-04 08:48:00,68.7,65.7,30.06,SW,236,2.0,7.0,90,0.00,,,0.00,meteohub,2013-10-04 12:48:00,
2013-10-04 08:49:00,68.7,65.7,30.06,SW,215,2.0,7.0,90,0.00,,,0.00,meteohub,2013-10-04 12:49:00,
2013-10-04 08:52:00,68.9,65.8,30.06,SW,234,4.0,7.0,90,0.00,,,0.00,meteohub,2013-10-04 12:52:00,
2013-10-04 08:53:00,68.9,65.8,30.06,SSW,209,3.0,7.0,90,0.00,,,0.00,meteohub,2013-10-04 12:53:00,
2013-10-04 08:54:00,68.9,65.8,30.06,WSW,249,4.0,7.0,90,0.00,,,0.00,meteohub,2013-10-04 12:54:00,
2013-10-04 08:55:00,69.1,66.0,30.06,SW,217,3.0,7.0,90,0.00,,,0.00,meteohub,2013-10-04 12:55:00,
2013-10-04 08:57:00,69.1,66.0,30.06,SW,217,2.0,7.0,90,0.00,,,0.00,meteohub,2013-10-04 12:57:00,
2013-10-04 08:58:00,69.1,66.0,30.06,WSW,240,3.0,7.0,90,0.00,,,0.00,meteohub,2013-10-04 12:58:00,
2013-10-04 09:00:00,69.3,66.2,30.06,SW,234,6.0,8.0,90,0.00,,,0.00,meteohub,2013-10-04 13:00:00,
2013-10-04 09:01:00,69.3,66.2,30.06,WSW,250,4.0,8.0,90,0.00,,,0.00,meteohub,2013-10-04 13:01:00,
2013-10-04 09:02:00,69.3,66.2,30.06,SSW,212,3.0,8.0,90,0.00,,,0.00,meteohub,2013-10-04 13:02:00,
2013-10-04 09:04:00,69.3,65.8,30.06,WSW,249,5.0,8.0,89,0.00,,,0.00,meteohub,2013-10-04 13:04:00,
2013-10-04 09:05:00,69.3,65.8,30.06,SW,233,5.0,8.0,89,0.00,,,0.00,meteohub,2013-10-04 13:05:00,
2013-10-04 09:06:00,69.3,65.8,30.06,WSW,242,2.0,8.0,89,0.00,,,0.00,meteohub,2013-10-04 13:06:00,
2013-10-04 09:07:00,69.3,65.8,30.06,SSW,211,3.0,8.0,89,0.00,,,0.00,meteohub,2013-10-04 13:07:00,
2013-10-04 09:09:00,69.4,66.0,30.06,WSW,237,6.0,8.0,89,0.00,,,0.00,meteohub,2013-10-04 13:09:00,
2013-10-04 09:11:00,69.4,66.4,30.06,SW,215,2.0,7.0,90,0.00,,,0.00,meteohub,2013-10-04 13:11:00,
2013-10-04 09:12:00,69.6,66.2,30.06,West,261,2.0,7.0,89,0.00,,,0.00,meteohub,2013-10-04 13:12:00,
2013-10-04 09:13:00,69.6,66.6,30.06,SW,236,1.0,7.0,90,0.00,,,0.00,meteohub,2013-10-04 13:13:00,
2013-10-04 09:14:00,69.8,66.7,30.06,WSW,239,2.0,7.0,90,0.00,,,0.00,meteohub,2013-10-04 13:14:00,
2013-10-04 09:16:00,70.0,66.6,30.06,SSW,198,2.0,7.0,89,0.00,,,0.00,meteohub,2013-10-04 13:16:00,
2013-10-04 09:17:00,70.0,66.6,30.06,WSW,238,3.0,7.0,89,0.00,,,0.00,meteohub,2013-10-04 13:17:00,
2013-10-04 09:18:00,70.0,66.6,30.06,SW,232,1.0,7.0,89,0.00,,,0.00,meteohub,2013-10-04 13:18:00,
2013-10-04 09:19:00,70.2,66.7,30.06,West,260,1.0,7.0,89,0.00,,,0.00,meteohub,2013-10-04 13:19:00,
2013-10-04 09:21:00,70.2,66.7,30.06,SSW,213,2.0,7.0,89,0.00,,,0.00,meteohub,2013-10-04 13:21:00,
2013-10-04 09:22:00,70.2,66.7,30.06,SSW,211,4.0,7.0,89,0.00,,,0.00,meteohub,2013-10-04 13:22:00,
2013-10-04 09:23:00,70.2,66.7,30.06,SW,230,3.0,7.0,89,0.00,,,0.00,meteohub,2013-10-04 13:23:00,
2013-10-04 09:24:00,70.2,66.7,30.06,WSW,258,2.0,7.0,89,0.00,,,0.00,meteohub,2013-10-04 13:24:00,
2013-10-04 09:25:00,70.2,66.7,30.06,WSW,241,5.0,7.0,89,0.00,,,0.00,meteohub,2013-10-04 13:25:00,
2013-10-04 09:27:00,70.2,66.7,30.06,WSW,255,2.0,8.0,89,0.00,,,0.00,meteohub,2013-10-04 13:27:00,
2013-10-04 09:29:00,70.3,66.9,30.06,WSW,253,3.0,8.0,89,0.00,,,0.00,meteohub,2013-10-04 13:29:00,
2013-10-04 09:30:00,70.3,66.9,30.06,WSW,258,3.0,8.0,89,0.00,,,0.00,meteohub,2013-10-04 13:30:00,
2013-10-04 09:33:00,70.3,66.6,30.06,SW,229,6.0,8.0,88,0.00,,,0.00,meteohub,2013-10-04 13:33:00,
2013-10-04 09:34:00,70.3,66.6,30.06,SW,230,6.0,8.0,88,0.00,,,0.00,meteohub,2013-10-04 13:34:00,
2013-10-04 09:35:00,70.3,66.6,30.06,WSW,238,6.0,8.0,88,0.00,,,0.00,meteohub,2013-10-04 13:35:00,
2013-10-04 09:38:00,70.3,66.6,30.06,SW,229,4.0,8.0,88,0.00,,,0.00,meteohub,2013-10-04 13:38:00,
2013-10-04 09:39:00,70.3,66.6,30.06,SW,234,4.0,8.0,88,0.00,,,0.00,meteohub,2013-10-04 13:39:00,
2013-10-04 09:40:00,70.3,66.6,30.06,WSW,244,5.0,8.0,88,0.00,,,0.00,meteohub,2013-10-04 13:40:00,
2013-10-04 09:41:00,70.3,66.6,30.06,WSW,248,7.0,7.0,88,0.00,,,0.00,meteohub,2013-10-04 13:41:00,
2013-10-04 09:43:00,70.3,66.6,30.06,WSW,241,4.0,7.0,88,0.00,,,0.00,meteohub,2013-10-04 13:43:00,
2013-10-04 09:44:00,70.3,66.6,30.06,SW,229,3.0,7.0,88,0.00,,,0.00,meteohub,2013-10-04 13:44:00,
2013-10-04 09:45:00,70.3,66.6,30.06,WSW,248,3.0,8.0,88,0.00,,,0.00,meteohub,2013-10-04 13:45:00,
2013-10-04 09:46:00,70.3,66.6,30.06,WSW,252,7.0,8.0,88,0.00,,,0.00,meteohub,2013-10-04 13:46:00,
2013-10-04 09:48:00,70.3,66.6,30.06,WSW,251,2.0,8.0,88,0.00,,,0.00,meteohub,2013-10-04 13:48:00,
2013-10-04 09:49:00,70.3,66.6,30.06,SW,225,4.0,8.0,88,0.00,,,0.00,meteohub,2013-10-04 13:49:00,
2013-10-04 09:50:00,70.5,66.7,30.06,SSW,200,3.0,8.0,88,0.00,,,0.00,meteohub,2013-10-04 13:50:00,
2013-10-04 09:51:00,70.5,66.7,30.06,WSW,248,3.0,8.0,88,0.00,,,0.00,meteohub,2013-10-04 13:51:00,
2013-10-04 09:53:00,70.7,66.9,30.05,SW,215,4.0,8.0,88,0.00,,,0.00,meteohub,2013-10-04 13:53:00,
2013-10-04 09:54:00,70.9,67.1,30.05,SW,221,1.0,8.0,88,0.00,,,0.00,meteohub,2013-10-04 13:54:00,
2013-10-04 09:55:00,70.9,67.1,30.05,WSW,250,2.0,8.0,88,0.00,,,0.00,meteohub,2013-10-04 13:55:00,
2013-10-04 09:56:00,70.9,67.1,30.05,SW,234,4.0,8.0,88,0.00,,,0.00,meteohub,2013-10-04 13:56:00,
2013-10-04 09:57:00,70.9,67.1,30.05,WSW,254,5.0,8.0,88,0.00,,,0.00,meteohub,2013-10-04 13:57:00,
2013-10-04 09:58:00,70.9,67.1,30.05,WSW,237,3.0,8.0,88,0.00,,,0.00,meteohub,2013-10-04 13:58:00,
2013-10-04 09:59:00,71.1,67.3,30.05,WSW,249,5.0,8.0,88,0.00,,,0.00,meteohub,2013-10-04 13:59:00,
2013-10-04 10:00:00,71.1,67.3,30.05,West,263,1.0,8.0,88,0.00,,,0.00,meteohub,2013-10-04 14:00:00,
2013-10-04 10:02:00,71.2,67.1,30.05,WSW,239,2.0,8.0,87,0.00,,,0.00,meteohub,2013-10-04 14:02:00,
2013-10-04 10:03:00,71.2,67.1,30.06,WSW,257,1.0,8.0,87,0.00,,,0.00,meteohub,2013-10-04 14:03:00,
2013-10-04 10:04:00,71.2,67.1,30.05,SW,234,2.0,8.0,87,0.00,,,0.00,meteohub,2013-10-04 14:04:00,
2013-10-04 10:06:00,71.4,67.3,30.05,WSW,257,3.0,8.0,87,0.00,,,0.00,meteohub,2013-10-04 14:06:00,
2013-10-04 10:07:00,71.4,67.3,30.06,SW,232,4.0,8.0,87,0.00,,,0.00,meteohub,2013-10-04 14:07:00,
2013-10-04 10:08:00,71.8,67.6,30.06,SW,235,3.0,8.0,87,0.00,,,0.00,meteohub,2013-10-04 14:08:00,
2013-10-04 10:10:00,71.8,67.3,30.06,SW,236,5.0,8.0,86,0.00,,,0.00,meteohub,2013-10-04 14:10:00,
2013-10-04 10:11:00,71.8,67.3,30.05,WSW,247,4.0,8.0,86,0.00,,,0.00,meteohub,2013-10-04 14:11:00,
2013-10-04 10:12:00,72.0,67.5,30.06,WSW,257,2.0,8.0,86,0.00,,,0.00,meteohub,2013-10-04 14:12:00,
2013-10-04 10:13:00,72.0,67.3,30.06,WSW,252,3.0,8.0,85,0.00,,,0.00,meteohub,2013-10-04 14:13:00,
2013-10-04 10:15:00,72.0,67.3,30.06,SW,232,2.0,7.0,85,0.00,,,0.00,meteohub,2013-10-04 14:15:00,
2013-10-04 10:16:00,72.0,67.3,30.06,SW,227,2.0,7.0,85,0.00,,,0.00,meteohub,2013-10-04 14:16:00,
2013-10-04 10:17:00,72.0,67.3,30.06,West,261,4.0,7.0,85,0.00,,,0.00,meteohub,2013-10-04 14:17:00,
2013-10-04 10:18:00,72.1,67.5,30.05,SW,226,2.0,7.0,85,0.00,,,0.00,meteohub,2013-10-04 14:18:00,
2013-10-04 10:19:00,72.1,67.5,30.06,WSW,250,5.0,7.0,85,0.00,,,0.00,meteohub,2013-10-04 14:19:00,
2013-10-04 10:20:00,72.1,67.5,30.05,SW,221,4.0,7.0,85,0.00,,,0.00,meteohub,2013-10-04 14:20:00,
2013-10-04 10:21:00,72.3,67.6,30.05,WSW,240,2.0,7.0,85,0.00,,,0.00,meteohub,2013-10-04 14:21:00,
2013-10-04 10:22:00,72.3,67.6,30.05,WSW,243,3.0,7.0,85,0.00,,,0.00,meteohub,2013-10-04 14:22:00,
2013-10-04 10:23:00,72.3,67.6,30.05,SW,230,1.0,7.0,85,0.00,,,0.00,meteohub,2013-10-04 14:23:00,
2013-10-04 10:25:00,72.7,67.8,30.05,WSW,244,2.0,7.0,85,0.00,,,0.00,meteohub,2013-10-04 14:25:00,
2013-10-04 10:27:00,72.9,68.0,30.05,SW,236,4.0,7.0,85,0.00,,,0.00,meteohub,2013-10-04 14:27:00,
2013-10-04 10:28:00,72.9,68.0,30.05,WSW,250,4.0,7.0,85,0.00,,,0.00,meteohub,2013-10-04 14:28:00,
2013-10-04 10:29:00,72.9,67.8,30.05,SW,225,1.0,7.0,84,0.00,,,0.00,meteohub,2013-10-04 14:29:00,
2013-10-04 10:31:00,73.0,68.0,30.05,SW,235,3.0,7.0,84,0.00,,,0.00,meteohub,2013-10-04 14:31:00,
2013-10-04 10:33:00,73.0,68.0,30.05,WSW,255,2.0,7.0,84,0.00,,,0.00,meteohub,2013-10-04 14:33:00,
2013-10-04 10:34:00,73.2,68.2,30.05,WSW,258,4.0,7.0,84,0.00,,,0.00,meteohub,2013-10-04 14:34:00,
2013-10-04 10:36:00,73.2,67.8,30.05,WNW,285,2.0,5.0,83,0.00,,,0.00,meteohub,2013-10-04 14:36:00,
2013-10-04 10:38:00,73.2,67.8,30.05,SSW,198,1.0,5.0,83,0.00,,,0.00,meteohub,2013-10-04 14:38:00,
2013-10-04 10:39:00,73.4,68.0,30.05,South,180,1.0,5.0,83,0.00,,,0.00,meteohub,2013-10-04 14:39:00,
2013-10-04 10:41:00,73.6,68.2,30.05,South,190,4.0,7.0,83,0.00,,,0.00,meteohub,2013-10-04 14:41:00,
2013-10-04 10:42:00,73.6,68.2,30.05,SSW,209,3.0,7.0,83,0.00,,,0.00,meteohub,2013-10-04 14:42:00,
2013-10-04 10:43:00,73.6,68.2,30.05,South,180,2.0,7.0,83,0.00,,,0.00,meteohub,2013-10-04 14:43:00,
2013-10-04 10:44:00,73.6,68.2,30.05,SSW,198,2.0,7.0,83,0.00,,,0.00,meteohub,2013-10-04 14:44:00,
2013-10-04 10:45:00,73.6,68.2,30.05,South,176,3.0,7.0,83,0.00,,,0.00,meteohub,2013-10-04 14:45:00,
2013-10-04 10:47:00,73.6,68.2,30.05,SSW,196,3.0,7.0,83,0.00,,,0.00,meteohub,2013-10-04 14:47:00,
2013-10-04 10:48:00,73.4,68.0,30.05,South,171,1.0,7.0,83,0.00,,,0.00,meteohub,2013-10-04 14:48:00,
2013-10-04 10:49:00,73.4,68.0,30.05,South,176,1.0,7.0,83,0.00,,,0.00,meteohub,2013-10-04 14:49:00,
2013-10-04 10:50:00,73.4,68.0,30.05,SSW,200,1.0,7.0,83,0.00,,,0.00,meteohub,2013-10-04 14:50:00,
2013-10-04 10:53:00,73.2,67.8,30.05,SSW,203,4.0,7.0,83,0.00,,,0.00,meteohub,2013-10-04 14:53:00,
2013-10-04 10:54:00,73.0,68.0,30.05,South,182,3.0,7.0,84,0.00,,,0.00,meteohub,2013-10-04 14:54:00,
2013-10-04 10:55:00,72.9,67.8,30.05,South,186,2.0,7.0,84,0.00,,,0.00,meteohub,2013-10-04 14:55:00,
2013-10-04 10:57:00,72.9,67.8,30.05,South,190,2.0,7.0,84,0.00,,,0.00,meteohub,2013-10-04 14:57:00,
2013-10-04 10:58:00,72.9,68.0,30.05,SSW,195,4.0,7.0,85,0.00,,,0.00,meteohub,2013-10-04 14:58:00,
2013-10-04 10:59:00,72.9,68.0,30.05,South,171,5.0,7.0,85,0.00,,,0.00,meteohub,2013-10-04 14:59:00,
2013-10-04 11:00:00,72.9,68.0,30.05,SSW,199,2.0,7.0,85,0.00,,,0.00,meteohub,2013-10-04 15:00:00,
2013-10-04 11:03:00,72.9,68.0,30.04,South,186,4.0,7.0,85,0.00,,,0.00,meteohub,2013-10-04 15:03:00,
2013-10-04 11:04:00,72.9,68.0,30.04,South,186,3.0,7.0,85,0.00,,,0.00,meteohub,2013-10-04 15:04:00,
2013-10-04 11:05:00,72.9,68.0,30.05,SSW,202,3.0,7.0,85,0.00,,,0.00,meteohub,2013-10-04 15:05:00,
2013-10-04 11:06:00,72.9,68.0,30.04,South,191,2.0,7.0,85,0.00,,,0.00,meteohub,2013-10-04 15:06:00,
2013-10-04 11:07:00,72.9,68.0,30.04,SSW,199,4.0,7.0,85,0.00,,,0.00,meteohub,2013-10-04 15:07:00,
2013-10-04 11:08:00,72.9,68.0,30.05,SSW,205,3.0,7.0,85,0.00,,,0.00,meteohub,2013-10-04 15:08:00,
2013-10-04 11:10:00,72.9,68.0,30.04,South,182,2.0,7.0,85,0.00,,,0.00,meteohub,2013-10-04 15:10:00,
2013-10-04 11:11:00,72.9,68.0,30.04,South,178,4.0,7.0,85,0.00,,,0.00,meteohub,2013-10-04 15:11:00,
2013-10-04 11:12:00,72.9,68.0,30.04,South,190,2.0,7.0,85,0.00,,,0.00,meteohub,2013-10-04 15:12:00,
2013-10-04 11:14:00,72.9,68.0,30.05,South,186,4.0,7.0,85,0.00,,,0.00,meteohub,2013-10-04 15:14:00,
2013-10-04 11:15:00,72.9,68.0,30.05,South,189,2.0,6.0,85,0.00,,,0.00,meteohub,2013-10-04 15:15:00,
2013-10-04 11:17:00,72.9,68.0,30.04,SSW,199,5.0,6.0,85,0.00,,,0.00,meteohub,2013-10-04 15:17:00,
2013-10-04 11:19:00,73.0,68.2,30.04,SSW,205,3.0,6.0,85,0.00,,,0.00,meteohub,2013-10-04 15:19:00,
2013-10-04 11:20:00,72.9,68.0,30.04,SSW,198,4.0,6.0,85,0.00,,,0.00,meteohub,2013-10-04 15:20:00,
2013-10-04 11:22:00,72.9,68.0,30.04,SSW,198,3.0,6.0,85,0.00,,,0.00,meteohub,2013-10-04 15:22:00,
2013-10-04 11:23:00,72.9,68.0,30.04,SW,220,4.0,6.0,85,0.00,,,0.00,meteohub,2013-10-04 15:23:00,
2013-10-04 11:24:00,72.9,68.0,30.04,SSW,192,3.0,6.0,85,0.00,,,0.00,meteohub,2013-10-04 15:24:00,
2013-10-04 11:26:00,73.0,68.2,30.04,SSW,205,2.0,6.0,85,0.00,,,0.00,meteohub,2013-10-04 15:26:00,
2013-10-04 11:27:00,73.0,68.2,30.04,SSE,150,2.0,6.0,85,0.00,,,0.00,meteohub,2013-10-04 15:27:00,
2013-10-04 11:28:00,73.0,68.2,30.04,SSW,203,2.0,6.0,85,0.00,,,0.00,meteohub,2013-10-04 15:28:00,
2013-10-04 11:29:00,73.2,68.4,30.04,South,184,5.0,6.0,85,0.00,,,0.00,meteohub,2013-10-04 15:29:00,
2013-10-04 11:30:00,73.2,68.4,30.04,South,170,4.0,6.0,85,0.00,,,0.00,meteohub,2013-10-04 15:30:00,
2013-10-04 11:33:00,73.6,68.7,30.04,South,173,2.0,6.0,85,0.00,,,0.00,meteohub,2013-10-04 15:33:00,
2013-10-04 11:34:00,73.6,68.7,30.04,SE,140,2.0,6.0,85,0.00,,,0.00,meteohub,2013-10-04 15:34:00,
2013-10-04 11:35:00,73.6,68.4,30.04,South,176,3.0,6.0,84,0.00,,,0.00,meteohub,2013-10-04 15:35:00,
2013-10-04 11:36:00,73.8,68.5,30.04,SSW,193,3.0,6.0,84,0.00,,,0.00,meteohub,2013-10-04 15:36:00,
2013-10-04 11:38:00,73.8,68.5,30.04,SSW,192,4.0,6.0,84,0.00,,,0.00,meteohub,2013-10-04 15:38:00,
2013-10-04 11:39:00,73.8,68.5,30.04,SSW,195,3.0,6.0,84,0.00,,,0.00,meteohub,2013-10-04 15:39:00,
2013-10-04 11:41:00,73.6,68.2,30.04,South,175,3.0,6.0,83,0.00,,,0.00,meteohub,2013-10-04 15:41:00,
2013-10-04 11:43:00,73.2,68.2,30.04,SSW,212,6.0,6.0,84,0.00,,,0.00,meteohub,2013-10-04 15:43:00,
2013-10-04 11:44:00,73.2,68.2,30.04,SSW,213,4.0,6.0,84,0.00,,,0.00,meteohub,2013-10-04 15:44:00,
2013-10-04 11:45:00,73.2,68.2,30.04,SSE,164,6.0,8.0,84,0.00,,,0.00,meteohub,2013-10-04 15:45:00,
2013-10-04 11:46:00,73.0,68.0,30.04,SSW,204,5.0,8.0,84,0.00,,,0.00,meteohub,2013-10-04 15:46:00,
2013-10-04 11:49:00,72.9,67.8,30.04,South,169,4.0,8.0,84,0.00,,,0.00,meteohub,2013-10-04 15:49:00,
2013-10-04 11:50:00,72.7,67.6,30.04,SSW,202,8.0,11.0,84,0.00,,,0.00,meteohub,2013-10-04 15:50:00,
2013-10-04 11:51:00,72.7,67.6,30.04,SSW,207,5.0,11.0,84,0.00,,,0.00,meteohub,2013-10-04 15:51:00,
2013-10-04 11:52:00,72.7,67.8,30.04,SSE,167,6.0,11.0,85,0.00,,,0.00,meteohub,2013-10-04 15:52:00,
2013-10-04 11:53:00,72.7,67.8,30.04,SW,219,6.0,11.0,85,0.00,,,0.00,meteohub,2013-10-04 15:53:00,
2013-10-04 11:55:00,72.7,67.8,30.04,SSW,199,8.0,11.0,85,0.00,,,0.00,meteohub,2013-10-04 15:55:00,
2013-10-04 11:56:00,72.7,67.8,30.04,SSW,192,5.0,11.0,85,0.00,,,0.00,meteohub,2013-10-04 15:56:00,
2013-10-04 11:57:00,72.7,67.8,30.04,SSW,208,2.0,11.0,85,0.00,,,0.00,meteohub,2013-10-04 15:57:00,
2013-10-04 11:58:00,72.7,67.8,30.04,SSW,201,5.0,11.0,85,0.00,,,0.00,meteohub,2013-10-04 15:58:00,
2013-10-04 12:00:00,72.7,67.8,30.04,SW,229,5.0,11.0,85,0.00,,,0.00,meteohub,2013-10-04 16:00:00,
2013-10-04 12:01:00,72.7,67.8,30.04,WSW,238,5.0,11.0,85,0.00,,,0.00,meteohub,2013-10-04 16:01:00,
2013-10-04 12:02:00,72.7,67.8,30.04,South,191,3.0,11.0,85,0.00,,,0.00,meteohub,2013-10-04 16:02:00,
2013-10-04 12:03:00,72.9,68.0,30.04,South,175,3.0,11.0,85,0.00,,,0.00,meteohub,2013-10-04 16:03:00,
2013-10-04 12:04:00,72.7,67.8,30.04,South,186,8.0,11.0,85,0.00,,,0.00,meteohub,2013-10-04 16:04:00,
2013-10-04 12:05:00,72.7,67.8,30.04,SSE,158,7.0,11.0,85,0.00,,,0.00,meteohub,2013-10-04 16:05:00,
2013-10-04 12:07:00,72.7,67.8,30.04,South,182,5.0,11.0,85,0.00,,,0.00,meteohub,2013-10-04 16:07:00,
2013-10-04 12:09:00,72.7,67.8,30.04,SSE,163,7.0,11.0,85,0.00,,,0.00,meteohub,2013-10-04 16:09:00,
2013-10-04 12:10:00,72.5,67.8,30.04,SW,231,11.0,11.0,85,0.00,,,0.00,meteohub,2013-10-04 16:10:00,
2013-10-04 12:12:00,72.5,67.8,30.04,South,175,6.0,10.0,85,0.00,,,0.00,meteohub,2013-10-04 16:12:00,
2013-10-04 12:15:00,72.5,68.0,30.04,South,190,7.0,10.0,86,0.00,,,0.00,meteohub,2013-10-04 16:15:00,
2013-10-04 12:16:00,72.5,67.8,30.04,SSW,194,3.0,11.0,85,0.00,,,0.00,meteohub,2013-10-04 16:16:00,
2013-10-04 12:17:00,72.7,68.2,30.04,SSW,200,5.0,11.0,86,0.00,,,0.00,meteohub,2013-10-04 16:17:00,
2013-10-04 12:18:00,72.7,68.2,30.04,SSW,207,4.0,11.0,86,0.00,,,0.00,meteohub,2013-10-04 16:18:00,
2013-10-04 12:20:00,72.7,67.8,30.04,SSE,150,5.0,11.0,85,0.00,,,0.00,meteohub,2013-10-04 16:20:00,
2013-10-04 12:21:00,72.7,67.8,30.04,SSE,153,5.0,11.0,85,0.00,,,0.00,meteohub,2013-10-04 16:21:00,
2013-10-04 12:22:00,72.7,67.8,30.03,SSW,211,5.0,11.0,85,0.00,,,0.00,meteohub,2013-10-04 16:22:00,
2013-10-04 12:23:00,72.7,67.8,30.04,SSW,203,7.0,11.0,85,0.00,,,0.00,meteohub,2013-10-04 16:23:00,
2013-10-04 12:26:00,72.7,67.8,30.04,South,178,4.0,11.0,85,0.00,,,0.00,meteohub,2013-10-04 16:26:00,
2013-10-04 12:27:00,72.7,67.8,30.04,SSW,208,5.0,11.0,85,0.00,,,0.00,meteohub,2013-10-04 16:27:00,
2013-10-04 12:28:00,72.7,68.2,30.04,SSW,193,4.0,11.0,86,0.00,,,0.00,meteohub,2013-10-04 16:28:00,
2013-10-04 12:31:00,72.5,68.0,30.04,SSW,201,6.0,11.0,86,0.00,,,0.00,meteohub,2013-10-04 16:31:00,
2013-10-04 12:32:00,72.5,68.0,30.04,SW,218,7.0,11.0,86,0.00,,,0.00,meteohub,2013-10-04 16:32:00,
2013-10-04 12:33:00,72.7,68.2,30.03,South,180,3.0,11.0,86,0.00,,,0.00,meteohub,2013-10-04 16:33:00,
2013-10-04 12:34:00,72.7,68.2,30.03,SW,216,3.0,11.0,86,0.00,,,0.00,meteohub,2013-10-04 16:34:00,
2013-10-04 12:37:00,72.7,68.2,30.03,South,177,6.0,11.0,86,0.00,,,0.00,meteohub,2013-10-04 16:37:00,
2013-10-04 12:39:00,72.9,68.4,30.03,SSW,209,6.0,11.0,86,0.00,,,0.00,meteohub,2013-10-04 16:39:00,
2013-10-04 12:42:00,72.9,68.0,30.03,SE,144,5.0,10.0,85,0.00,,,0.00,meteohub,2013-10-04 16:42:00,
2013-10-04 12:44:00,72.7,68.2,30.02,SSE,149,8.0,10.0,86,0.00,,,0.00,meteohub,2013-10-04 16:44:00,
2013-10-04 12:45:00,72.7,67.8,30.03,SSW,209,6.0,12.0,85,0.00,,,0.00,meteohub,2013-10-04 16:45:00,
2013-10-04 12:47:00,72.9,68.4,30.02,SSE,150,6.0,12.0,86,0.00,,,0.00,meteohub,2013-10-04 16:47:00,
2013-10-04 12:49:00,72.9,68.4,30.02,South,184,4.0,12.0,86,0.00,,,0.00,meteohub,2013-10-04 16:49:00,
2013-10-04 12:50:00,72.9,68.4,30.02,SW,235,5.0,12.0,86,0.00,,,0.00,meteohub,2013-10-04 16:50:00,
2013-10-04 12:52:00,72.7,67.8,30.02,WSW,244,7.0,12.0,85,0.00,,,0.00,meteohub,2013-10-04 16:52:00,
2013-10-04 12:54:00,72.7,68.2,30.02,South,176,7.0,12.0,86,0.00,,,0.00,meteohub,2013-10-04 16:54:00,
2013-10-04 12:55:00,72.7,68.2,30.02,South,184,5.0,12.0,86,0.00,,,0.00,meteohub,2013-10-04 16:55:00,
2013-10-04 12:56:00,72.7,68.2,30.02,SSW,194,5.0,12.0,86,0.00,,,0.00,meteohub,2013-10-04 16:56:00,
2013-10-04 12:57:00,72.7,68.2,30.02,South,191,7.0,12.0,86,0.00,,,0.00,meteohub,2013-10-04 16:57:00,
2013-10-04 13:00:00,72.7,68.2,30.02,SSW,197,5.0,12.0,86,0.00,,,0.00,meteohub,2013-10-04 17:00:00,
2013-10-04 13:01:00,72.7,68.2,30.02,South,180,5.0,14.0,86,0.00,,,0.00,meteohub,2013-10-04 17:01:00,
2013-10-04 13:03:00,72.7,68.2,30.02,SSE,156,3.0,14.0,86,0.00,,,0.00,meteohub,2013-10-04 17:03:00,
2013-10-04 13:05:00,72.7,68.2,30.01,South,177,5.0,14.0,86,0.00,,,0.00,meteohub,2013-10-04 17:05:00,
2013-10-04 13:06:00,72.7,68.2,30.01,SSW,205,4.0,14.0,86,0.00,,,0.00,meteohub,2013-10-04 17:06:00,
2013-10-04 13:07:00,72.7,68.2,30.01,SSW,207,4.0,14.0,86,0.00,,,0.00,meteohub,2013-10-04 17:07:00,
2013-10-04 13:08:00,72.7,68.2,30.01,SSW,200,3.0,14.0,86,0.00,,,0.00,meteohub,2013-10-04 17:08:00,
2013-10-04 13:10:00,72.9,68.4,30.01,SW,236,4.0,13.0,86,0.00,,,0.00,meteohub,2013-10-04 17:10:00,
2013-10-04 13:11:00,72.9,68.4,30.01,SSW,209,6.0,13.0,86,0.00,,,0.00,meteohub,2013-10-04 17:11:00,
2013-10-04 13:13:00,72.7,68.2,30.01,SSW,199,5.0,13.0,86,0.00,,,0.00,meteohub,2013-10-04 17:13:00,
2013-10-04 13:14:00,72.7,68.2,30.01,South,189,9.0,13.0,86,0.00,,,0.00,meteohub,2013-10-04 17:14:00,
2013-10-04 13:15:00,72.7,68.2,30.01,SSW,198,4.0,12.0,86,0.00,,,0.00,meteohub,2013-10-04 17:15:00,
2013-10-04 13:16:00,72.7,68.2,30.01,SW,217,5.0,12.0,86,0.00,,,0.00,meteohub,2013-10-04 17:16:00,
2013-10-04 13:18:00,72.7,68.2,30.01,SW,227,4.0,12.0,86,0.00,,,0.00,meteohub,2013-10-04 17:18:00,
2013-10-04 13:19:00,72.7,68.2,30.01,SW,220,8.0,12.0,86,0.00,,,0.00,meteohub,2013-10-04 17:19:00,
2013-10-04 13:20:00,72.7,68.2,30.01,South,191,6.0,12.0,86,0.00,,,0.00,meteohub,2013-10-04 17:20:00,
2013-10-04 13:21:00,72.7,68.2,30.01,South,190,7.0,12.0,86,0.00,,,0.00,meteohub,2013-10-04 17:21:00,
2013-10-04 13:22:00,72.7,68.2,30.01,SSW,203,4.0,12.0,86,0.00,,,0.00,meteohub,2013-10-04 17:22:00,
2013-10-04 13:24:00,72.7,67.8,30.00,SSW,194,6.0,12.0,85,0.00,,,0.00,meteohub,2013-10-04 17:24:00,
2013-10-04 13:25:00,72.7,67.8,30.00,SSW,200,6.0,12.0,85,0.00,,,0.00,meteohub,2013-10-04 17:25:00,
2013-10-04 13:27:00,72.7,67.8,30.00,South,175,9.0,12.0,85,0.00,,,0.00,meteohub,2013-10-04 17:27:00,
2013-10-04 13:29:00,72.9,68.0,30.00,South,187,10.0,12.0,85,0.00,,,0.00,meteohub,2013-10-04 17:29:00,
2013-10-04 13:30:00,72.7,67.8,30.00,SW,235,7.0,11.0,85,0.00,,,0.00,meteohub,2013-10-04 17:30:00,
2013-10-04 13:32:00,72.7,67.8,30.00,SSW,198,5.0,11.0,85,0.00,,,0.00,meteohub,2013-10-04 17:32:00,
2013-10-04 13:34:00,72.9,68.0,30.00,SSW,203,5.0,11.0,85,0.00,,,0.00,meteohub,2013-10-04 17:34:00,
2013-10-04 13:36:00,72.9,68.0,30.00,South,178,6.0,11.0,85,0.00,,,0.00,meteohub,2013-10-04 17:36:00,
2013-10-04 13:37:00,72.7,67.8,30.00,WSW,242,3.0,11.0,85,0.00,,,0.00,meteohub,2013-10-04 17:37:00,
2013-10-04 13:38:00,72.7,67.8,30.00,South,184,3.0,11.0,85,0.00,,,0.00,meteohub,2013-10-04 17:38:00,
2013-10-04 13:58:00,73.0,68.0,29.99,South,184,4.0,11.0,84,0.00,,,0.00,meteohub,2013-10-04 17:58:00,
2013-10-04 14:00:00,73.0,68.2,29.99,South,170,4.0,11.0,85,0.00,,,0.00,meteohub,2013-10-04 18:00:00,
2013-10-04 14:02:00,73.4,68.2,29.99,South,191,4.0,11.0,84,0.00,,,0.00,meteohub,2013-10-04 18:02:00,
2013-10-04 14:03:00,73.6,68.4,29.99,South,175,11.0,11.0,84,0.00,,,0.00,meteohub,2013-10-04 18:03:00,
2013-10-04 14:04:00,73.6,68.2,29.99,SSW,199,6.0,11.0,83,0.00,,,0.00,meteohub,2013-10-04 18:04:00,
2013-10-04 14:05:00,73.8,68.4,29.99,South,177,10.0,11.0,83,0.00,,,0.00,meteohub,2013-10-04 18:05:00,
2013-10-04 14:08:00,73.8,68.0,29.99,SW,220,4.0,11.0,82,0.00,,,0.00,meteohub,2013-10-04 18:08:00,
2013-10-04 14:09:00,73.8,68.0,29.99,SSW,199,6.0,11.0,82,0.00,,,0.00,meteohub,2013-10-04 18:09:00,
2013-10-04 14:10:00,73.6,67.8,29.99,SW,236,6.0,13.0,82,0.00,,,0.00,meteohub,2013-10-04 18:10:00,
2013-10-04 14:11:00,73.6,67.8,29.99,SSW,196,7.0,13.0,82,0.00,,,0.00,meteohub,2013-10-04 18:11:00,
2013-10-04 14:14:00,73.8,68.0,29.99,South,178,7.0,13.0,82,0.00,,,0.00,meteohub,2013-10-04 18:14:00,
2013-10-04 14:15:00,73.6,67.8,29.99,South,189,11.0,13.0,82,0.00,,,0.00,meteohub,2013-10-04 18:15:00,
2013-10-04 14:16:00,73.6,67.8,29.99,SSW,206,7.0,13.0,82,0.00,,,0.00,meteohub,2013-10-04 18:16:00,
2013-10-04 14:19:00,73.6,67.8,29.99,South,180,9.0,13.0,82,0.00,,,0.00,meteohub,2013-10-04 18:19:00,
2013-10-04 14:20:00,73.6,67.8,29.99,SSW,196,6.0,13.0,82,0.00,,,0.00,meteohub,2013-10-04 18:20:00,
2013-10-04 14:21:00,73.6,67.8,29.99,SW,219,9.0,13.0,82,0.00,,,0.00,meteohub,2013-10-04 18:21:00,
2013-10-04 14:22:00,73.4,67.6,29.99,SSW,194,7.0,13.0,82,0.00,,,0.00,meteohub,2013-10-04 18:22:00,
2013-10-04 14:25:00,73.2,67.5,29.99,SSW,198,7.0,13.0,82,0.00,,,0.00,meteohub,2013-10-04 18:25:00,
2013-10-04 14:26:00,73.2,67.5,29.99,South,190,5.0,13.0,82,0.00,,,0.00,meteohub,2013-10-04 18:26:00,
2013-10-04 14:27:00,73.4,67.6,29.99,SSW,207,9.0,13.0,82,0.00,,,0.00,meteohub,2013-10-04 18:27:00,
2013-10-04 14:28:00,73.4,67.6,29.99,SSW,196,3.0,13.0,82,0.00,,,0.00,meteohub,2013-10-04 18:28:00,
2013-10-04 14:31:00,73.4,67.6,29.99,SSW,193,5.0,13.0,82,0.00,,,0.00,meteohub,2013-10-04 18:31:00,
2013-10-04 14:32:00,73.4,67.6,29.99,South,181,5.0,13.0,82,0.00,,,0.00,meteohub,2013-10-04 18:32:00,
2013-10-04 14:34:00,73.6,67.8,29.99,SSW,212,3.0,13.0,82,0.00,,,0.00,meteohub,2013-10-04 18:34:00,
2013-10-04 14:37:00,73.4,67.6,29.99,SSE,152,4.0,11.0,82,0.00,,,0.00,meteohub,2013-10-04 18:37:00,
2013-10-04 14:39:00,73.4,68.0,29.99,SSE,151,5.0,11.0,83,0.00,,,0.00,meteohub,2013-10-04 18:39:00,
2013-10-04 14:42:00,73.6,68.2,29.99,SSW,213,3.0,11.0,83,0.00,,,0.00,meteohub,2013-10-04 18:42:00,
2013-10-04 14:43:00,73.8,68.4,29.99,SW,221,2.0,11.0,83,0.00,,,0.00,meteohub,2013-10-04 18:43:00,
2013-10-04 14:44:00,73.8,68.4,29.98,SSW,211,5.0,11.0,83,0.00,,,0.00,meteohub,2013-10-04 18:44:00,
2013-10-04 14:45:00,73.8,68.4,29.99,SSW,193,5.0,11.0,83,0.00,,,0.00,meteohub,2013-10-04 18:45:00,
2013-10-04 14:48:00,73.9,68.2,29.98,SW,227,4.0,11.0,82,0.00,,,0.00,meteohub,2013-10-04 18:48:00,
2013-10-04 14:50:00,73.9,68.2,29.99,SSW,201,7.0,11.0,82,0.00,,,0.00,meteohub,2013-10-04 18:50:00,
2013-10-04 14:51:00,73.9,68.2,29.98,SW,217,6.0,11.0,82,0.00,,,0.00,meteohub,2013-10-04 18:51:00,
2013-10-04 14:53:00,73.9,68.2,29.98,SSW,193,4.0,11.0,82,0.00,,,0.00,meteohub,2013-10-04 18:53:00,
2013-10-04 14:55:00,73.8,68.0,29.98,SW,219,9.0,11.0,82,0.00,,,0.00,meteohub,2013-10-04 18:55:00,
2013-10-04 14:56:00,73.8,68.0,29.98,SW,217,6.0,11.0,82,0.00,,,0.00,meteohub,2013-10-04 18:56:00,
2013-10-04 14:58:00,73.8,68.0,29.98,South,189,12.0,12.0,82,0.00,,,0.00,meteohub,2013-10-04 18:58:00,
2013-10-04 15:00:00,73.8,68.0,29.98,SW,214,6.0,11.0,82,0.00,,,0.00,meteohub,2013-10-04 19:00:00,
2013-10-04 15:01:00,73.8,68.0,29.98,SSW,198,6.0,11.0,82,0.00,,,0.00,meteohub,2013-10-04 19:01:00,
2013-10-04 15:02:00,73.8,68.4,29.98,SW,234,4.0,11.0,83,0.00,,,0.00,meteohub,2013-10-04 19:02:00,
2013-10-04 15:03:00,73.8,68.4,29.98,WNW,285,2.0,11.0,83,0.00,,,0.00,meteohub,2013-10-04 19:03:00,
2013-10-04 15:04:00,73.8,68.4,29.98,SSW,196,6.0,11.0,83,0.00,,,0.00,meteohub,2013-10-04 19:04:00,
2013-10-04 15:06:00,73.8,68.4,29.98,South,190,8.0,12.0,83,0.00,,,0.00,meteohub,2013-10-04 19:06:00,
2013-10-04 15:07:00,73.9,68.4,29.98,South,179,7.0,12.0,83,0.00,,,0.00,meteohub,2013-10-04 19:07:00,
2013-10-04 15:08:00,73.9,68.4,29.98,SSE,161,4.0,12.0,83,0.00,,,0.00,meteohub,2013-10-04 19:08:00,
2013-10-04 15:09:00,73.8,68.4,29.99,SW,221,4.0,12.0,83,0.00,,,0.00,meteohub,2013-10-04 19:09:00,
2013-10-04 15:11:00,73.8,68.4,29.98,SSW,205,6.0,12.0,83,0.00,,,0.00,meteohub,2013-10-04 19:11:00,
2013-10-04 15:13:00,73.8,68.4,29.98,SSW,198,7.0,12.0,83,0.00,,,0.00,meteohub,2013-10-04 19:13:00,
2013-10-04 15:14:00,73.8,68.4,29.98,South,186,5.0,12.0,83,0.00,,,0.00,meteohub,2013-10-04 19:14:00,
2013-10-04 15:16:00,73.8,68.4,29.98,SSW,205,4.0,11.0,83,0.00,,,0.00,meteohub,2013-10-04 19:16:00,
2013-10-04 15:17:00,73.8,68.4,29.98,SSW,207,5.0,11.0,83,0.00,,,0.00,meteohub,2013-10-04 19:17:00,
2013-10-04 15:19:00,73.9,68.4,29.99,SSW,192,7.0,11.0,83,0.00,,,0.00,meteohub,2013-10-04 19:19:00,
2013-10-04 15:20:00,73.9,68.4,29.98,SSW,205,7.0,11.0,83,0.00,,,0.00,meteohub,2013-10-04 19:20:00,
2013-10-04 15:21:00,73.9,68.4,29.98,SSW,205,3.0,11.0,83,0.00,,,0.00,meteohub,2013-10-04 19:21:00,
2013-10-04 15:23:00,73.9,68.4,29.98,SW,218,8.0,11.0,83,0.00,,,0.00,meteohub,2013-10-04 19:23:00,
2013-10-04 15:24:00,73.8,68.4,29.98,SSE,165,7.0,11.0,83,0.00,,,0.00,meteohub,2013-10-04 19:24:00,
2013-10-04 15:25:00,73.8,68.4,29.98,SSE,165,7.0,11.0,83,0.00,,,0.00,meteohub,2013-10-04 19:25:00,
2013-10-04 15:26:00,73.8,68.4,29.98,South,178,8.0,11.0,83,0.00,,,0.00,meteohub,2013-10-04 19:26:00,
2013-10-04 15:27:00,73.8,68.4,29.98,SSE,149,9.0,11.0,83,0.00,,,0.00,meteohub,2013-10-04 19:27:00,
2013-10-04 15:29:00,73.6,68.2,29.98,SSW,197,2.0,11.0,83,0.00,,,0.00,meteohub,2013-10-04 19:29:00,
2013-10-04 15:30:00,73.6,68.2,29.98,South,173,7.0,11.0,83,0.00,,,0.00,meteohub,2013-10-04 19:30:00,
2013-10-04 15:31:00,73.6,68.4,29.98,SSW,196,11.0,11.0,84,0.00,,,0.00,meteohub,2013-10-04 19:31:00,
2013-10-04 15:32:00,73.6,68.4,29.98,SSW,200,5.0,11.0,84,0.00,,,0.00,meteohub,2013-10-04 19:32:00,
2013-10-04 15:34:00,73.6,68.4,29.98,South,186,3.0,11.0,84,0.00,,,0.00,meteohub,2013-10-04 19:34:00,
2013-10-04 15:35:00,73.4,68.2,29.98,South,181,5.0,11.0,84,0.00,,,0.00,meteohub,2013-10-04 19:35:00,
2013-10-04 15:37:00,73.6,68.4,29.98,WSW,243,3.0,11.0,84,0.00,,,0.00,meteohub,2013-10-04 19:37:00,
2013-10-04 15:40:00,73.6,68.4,29.99,SSW,198,6.0,11.0,84,0.00,,,0.00,meteohub,2013-10-04 19:40:00,
2013-10-04 15:41:00,73.6,68.4,29.99,SW,224,5.0,11.0,84,0.00,,,0.00,meteohub,2013-10-04 19:41:00,
2013-10-04 15:42:00,73.6,68.4,29.99,SSE,163,6.0,11.0,84,0.00,,,0.00,meteohub,2013-10-04 19:42:00,
2013-10-04 15:43:00,73.6,68.4,29.99,SW,234,6.0,11.0,84,0.00,,,0.00,meteohub,2013-10-04 19:43:00,
2013-10-04 15:46:00,73.6,68.4,29.99,WSW,238,3.0,11.0,84,0.00,,,0.00,meteohub,2013-10-04 19:46:00,
2013-10-04 15:47:00,73.6,68.4,29.99,SSW,212,7.0,11.0,84,0.00,,,0.00,meteohub,2013-10-04 19:47:00,
2013-10-04 15:48:00,73.6,68.4,29.99,SW,232,3.0,11.0,84,0.00,,,0.00,meteohub,2013-10-04 19:48:00,
2013-10-04 15:51:00,73.6,68.4,29.99,SSW,195,3.0,11.0,84,0.00,,,0.00,meteohub,2013-10-04 19:51:00,
2013-10-04 15:52:00,73.4,68.2,29.99,SSW,212,2.0,11.0,84,0.00,,,0.00,meteohub,2013-10-04 19:52:00,
2013-10-04 15:53:00,73.4,68.2,29.99,SSW,196,3.0,11.0,84,0.00,,,0.00,meteohub,2013-10-04 19:53:00,
2013-10-04 15:54:00,73.2,68.2,29.99,SSE,150,3.0,11.0,84,0.00,,,0.00,meteohub,2013-10-04 19:54:00,
2013-10-04 15:56:00,73.2,68.2,29.98,SW,226,4.0,11.0,84,0.00,,,0.00,meteohub,2013-10-04 19:56:00,
2013-10-04 15:57:00,73.2,68.4,29.98,South,181,6.0,11.0,85,0.00,,,0.00,meteohub,2013-10-04 19:57:00,
2013-10-04 15:58:00,73.2,68.4,29.98,SE,145,4.0,11.0,85,0.00,,,0.00,meteohub,2013-10-04 19:58:00,
2013-10-04 15:59:00,73.2,68.4,29.98,SSW,202,6.0,11.0,85,0.00,,,0.00,meteohub,2013-10-04 19:59:00,
2013-10-04 16:01:00,73.0,68.2,29.98,SSW,193,7.0,10.0,85,0.00,,,0.00,meteohub,2013-10-04 20:01:00,
2013-10-04 16:02:00,73.0,68.2,29.98,South,185,4.0,10.0,85,0.00,,,0.00,meteohub,2013-10-04 20:02:00,
2013-10-04 16:03:00,73.0,68.2,29.98,SSW,209,4.0,10.0,85,0.00,,,0.00,meteohub,2013-10-04 20:03:00,
2013-10-04 16:04:00,72.9,68.0,29.98,SSE,167,8.0,10.0,85,0.00,,,0.00,meteohub,2013-10-04 20:04:00,
2013-10-04 16:05:00,72.9,68.0,29.98,South,191,5.0,10.0,85,0.00,,,0.00,meteohub,2013-10-04 20:05:00,
2013-10-04 16:07:00,72.9,68.0,29.98,SSW,205,4.0,10.0,85,0.00,,,0.00,meteohub,2013-10-04 20:07:00,
2013-10-04 16:08:00,72.9,68.0,29.98,SE,138,8.0,10.0,85,0.00,,,0.00,meteohub,2013-10-04 20:08:00,
2013-10-04 16:10:00,72.9,68.0,29.98,South,188,8.0,10.0,85,0.00,,,0.00,meteohub,2013-10-04 20:10:00,
2013-10-04 16:12:00,72.7,68.2,29.98,South,188,8.0,10.0,86,0.00,,,0.00,meteohub,2013-10-04 20:12:00,
2013-10-04 16:14:00,72.7,68.2,29.98,SSW,199,6.0,10.0,86,0.00,,,0.00,meteohub,2013-10-04 20:14:00,
2013-10-04 16:16:00,72.7,68.2,29.98,SSW,202,4.0,10.0,86,0.00,,,0.00,meteohub,2013-10-04 20:16:00,
2013-10-04 16:17:00,72.7,68.2,29.98,South,175,6.0,10.0,86,0.00,,,0.00,meteohub,2013-10-04 20:17:00,
2013-10-04 16:19:00,72.5,68.0,29.98,South,184,5.0,10.0,86,0.00,,,0.00,meteohub,2013-10-04 20:19:00,
2013-10-04 16:20:00,72.5,68.0,29.98,SSE,163,8.0,10.0,86,0.00,,,0.00,meteohub,2013-10-04 20:20:00,
2013-10-04 16:21:00,72.3,67.8,29.98,SSW,193,4.0,10.0,86,0.00,,,0.00,meteohub,2013-10-04 20:21:00,
2013-10-04 16:22:00,72.3,67.8,29.98,SSW,202,5.0,10.0,86,0.00,,,0.00,meteohub,2013-10-04 20:22:00,
2013-10-04 16:24:00,72.3,67.8,29.98,SSW,196,6.0,10.0,86,0.00,,,0.00,meteohub,2013-10-04 20:24:00,
2013-10-04 16:25:00,72.3,67.8,29.98,SSW,205,6.0,10.0,86,0.00,,,0.00,meteohub,2013-10-04 20:25:00,
2013-10-04 16:26:00,72.3,67.8,29.98,SSW,202,6.0,10.0,86,0.00,,,0.00,meteohub,2013-10-04 20:26:00,
2013-10-04 16:27:00,72.3,67.8,29.98,South,183,8.0,10.0,86,0.00,,,0.00,meteohub,2013-10-04 20:27:00,
2013-10-04 16:29:00,72.3,67.8,29.98,South,186,5.0,10.0,86,0.00,,,0.00,meteohub,2013-10-04 20:29:00,
2013-10-04 16:31:00,72.1,67.6,29.98,SSW,196,5.0,10.0,86,0.00,,,0.00,meteohub,2013-10-04 20:31:00,
2013-10-04 16:32:00,72.1,67.6,29.98,SSW,202,10.0,10.0,86,0.00,,,0.00,meteohub,2013-10-04 20:32:00,
2013-10-04 16:35:00,72.1,68.0,29.98,SW,221,3.0,10.0,87,0.00,,,0.00,meteohub,2013-10-04 20:35:00,
2013-10-04 16:36:00,72.1,68.0,29.98,SSW,200,7.0,10.0,87,0.00,,,0.00,meteohub,2013-10-04 20:36:00,
2013-10-04 16:37:00,72.1,68.0,29.98,SSE,152,8.0,10.0,87,0.00,,,0.00,meteohub,2013-10-04 20:37:00,
2013-10-04 16:38:00,72.1,68.0,29.98,SSW,213,7.0,10.0,87,0.00,,,0.00,meteohub,2013-10-04 20:38:00,
2013-10-04 16:40:00,72.1,68.0,29.98,SW,222,3.0,10.0,87,0.00,,,0.00,meteohub,2013-10-04 20:40:00,
2013-10-04 16:41:00,72.1,68.0,29.98,South,176,4.0,10.0,87,0.00,,,0.00,meteohub,2013-10-04 20:41:00,
2013-10-04 16:42:00,72.0,67.8,29.98,SSW,212,3.0,10.0,87,0.00,,,0.00,meteohub,2013-10-04 20:42:00,
2013-10-04 16:43:00,72.0,67.8,29.98,SSW,199,9.0,10.0,87,0.00,,,0.00,meteohub,2013-10-04 20:43:00,
2013-10-04 16:45:00,72.0,67.8,29.98,SSW,196,3.0,10.0,87,0.00,,,0.00,meteohub,2013-10-04 20:45:00,
2013-10-04 16:46:00,72.0,67.8,29.98,South,174,8.0,10.0,87,0.00,,,0.00,meteohub,2013-10-04 20:46:00,
2013-10-04 16:47:00,72.0,67.8,29.98,South,188,6.0,10.0,87,0.00,,,0.00,meteohub,2013-10-04 20:47:00,
2013-10-04 16:48:00,72.0,67.8,29.98,WSW,238,5.0,10.0,87,0.00,,,0.00,meteohub,2013-10-04 20:48:00,
2013-10-04 16:49:00,72.0,67.8,29.98,SSW,200,9.0,10.0,87,0.00,,,0.00,meteohub,2013-10-04 20:49:00,
2013-10-04 16:50:00,72.0,67.8,29.98,SW,215,6.0,10.0,87,0.00,,,0.00,meteohub,2013-10-04 20:50:00,
2013-10-04 16:51:00,72.0,67.8,29.98,SSW,194,6.0,10.0,87,0.00,,,0.00,meteohub,2013-10-04 20:51:00,
2013-10-04 16:52:00,71.8,67.6,29.97,SSW,213,6.0,10.0,87,0.00,,,0.00,meteohub,2013-10-04 20:52:00,
2013-10-04 16:53:00,72.0,67.8,29.97,South,188,9.0,10.0,87,0.00,,,0.00,meteohub,2013-10-04 20:53:00,
2013-10-04 16:54:00,71.8,67.6,29.98,SW,214,7.0,10.0,87,0.00,,,0.00,meteohub,2013-10-04 20:54:00,
2013-10-04 16:55:00,71.8,67.6,29.98,South,178,9.0,13.0,87,0.00,,,0.00,meteohub,2013-10-04 20:55:00,
2013-10-04 16:56:00,71.8,67.6,29.98,SSW,208,9.0,13.0,87,0.00,,,0.00,meteohub,2013-10-04 20:56:00,
2013-10-04 16:58:00,71.8,67.6,29.98,SW,227,9.0,13.0,87,0.00,,,0.00,meteohub,2013-10-04 20:58:00,
2013-10-04 16:59:00,71.8,67.6,29.98,SSW,201,4.0,13.0,87,0.00,,,0.00,meteohub,2013-10-04 20:59:00,
2013-10-04 17:00:00,71.8,67.6,29.98,SW,218,5.0,13.0,87,0.00,,,0.00,meteohub,2013-10-04 21:00:00,
2013-10-04 17:01:00,71.8,67.6,29.97,SSW,205,3.0,13.0,87,0.00,,,0.00,meteohub,2013-10-04 21:01:00,
2013-10-04 17:02:00,71.8,67.6,29.98,SSW,197,7.0,13.0,87,0.00,,,0.00,meteohub,2013-10-04 21:02:00,
2013-10-04 17:03:00,71.8,68.0,29.97,SSW,194,8.0,13.0,88,0.00,,,0.00,meteohub,2013-10-04 21:03:00,
2013-10-04 17:04:00,71.8,67.6,29.97,SSW,207,6.0,13.0,87,0.00,,,0.00,meteohub,2013-10-04 21:04:00,
2013-10-04 17:05:00,71.8,67.6,29.97,SW,214,2.0,10.0,87,0.00,,,0.00,meteohub,2013-10-04 21:05:00,
2013-10-04 17:06:00,71.8,67.6,29.97,SSW,192,5.0,10.0,87,0.00,,,0.00,meteohub,2013-10-04 21:06:00,
2013-10-04 17:07:00,71.8,67.6,29.98,SSW,199,5.0,10.0,87,0.00,,,0.00,meteohub,2013-10-04 21:07:00,
2013-10-04 17:08:00,71.8,67.6,29.98,SSW,202,5.0,10.0,87,0.00,,,0.00,meteohub,2013-10-04 21:08:00,
2013-10-04 17:10:00,71.6,67.5,29.97,SSW,211,4.0,10.0,87,0.00,,,0.00,meteohub,2013-10-04 21:10:00,
2013-10-04 17:11:00,71.6,67.5,29.98,South,178,7.0,10.0,87,0.00,,,0.00,meteohub,2013-10-04 21:11:00,
2013-10-04 17:12:00,71.6,67.5,29.97,SSW,201,4.0,10.0,87,0.00,,,0.00,meteohub,2013-10-04 21:12:00,
2013-10-04 17:13:00,71.6,67.5,29.97,SSE,147,5.0,10.0,87,0.00,,,0.00,meteohub,2013-10-04 21:13:00,
2013-10-04 17:14:00,71.6,67.5,29.97,South,190,8.0,10.0,87,0.00,,,0.00,meteohub,2013-10-04 21:14:00,
2013-10-04 17:16:00,71.6,67.5,29.97,SSW,197,5.0,10.0,87,0.00,,,0.00,meteohub,2013-10-04 21:16:00,
2013-10-04 17:18:00,71.6,67.5,29.97,SW,215,6.0,10.0,87,0.00,,,0.00,meteohub,2013-10-04 21:18:00,
2013-10-04 17:19:00,71.6,67.5,29.97,SW,215,2.0,10.0,87,0.00,,,0.00,meteohub,2013-10-04 21:19:00,
2013-10-04 17:21:00,71.6,67.5,29.97,SSW,211,3.0,9.0,87,0.00,,,0.00,meteohub,2013-10-04 21:21:00,
2013-10-04 17:22:00,71.6,67.5,29.97,SSW,198,5.0,9.0,87,0.00,,,0.00,meteohub,2013-10-04 21:22:00,
2013-10-04 17:24:00,71.6,67.5,29.97,South,190,6.0,9.0,87,0.00,,,0.00,meteohub,2013-10-04 21:24:00,
2013-10-04 17:27:00,71.6,67.5,29.97,South,186,6.0,9.0,87,0.00,,,0.00,meteohub,2013-10-04 21:27:00,
2013-10-04 17:29:00,71.6,67.5,29.97,SW,234,4.0,9.0,87,0.00,,,0.00,meteohub,2013-10-04 21:29:00,
2013-10-04 17:30:00,71.6,67.5,29.97,SSW,212,3.0,9.0,87,0.00,,,0.00,meteohub,2013-10-04 21:30:00,
2013-10-04 17:32:00,71.6,67.5,29.97,SW,227,3.0,9.0,87,0.00,,,0.00,meteohub,2013-10-04 21:32:00,
2013-10-04 17:34:00,71.6,67.5,29.97,SSW,196,3.0,9.0,87,0.00,,,0.00,meteohub,2013-10-04 21:34:00,
2013-10-04 17:35:00,71.6,67.5,29.98,SSW,207,3.0,9.0,87,0.00,,,0.00,meteohub,2013-10-04 21:35:00,
2013-10-04 17:37:00,71.6,67.5,29.98,SSW,196,8.0,9.0,87,0.00,,,0.00,meteohub,2013-10-04 21:37:00,
2013-10-04 17:38:00,71.6,67.5,29.98,SW,217,6.0,9.0,87,0.00,,,0.00,meteohub,2013-10-04 21:38:00,
2013-10-04 17:40:00,71.6,67.5,29.98,SSW,205,4.0,9.0,87,0.00,,,0.00,meteohub,2013-10-04 21:40:00,
2013-10-04 17:41:00,71.4,67.3,29.98,SSW,199,2.0,9.0,87,0.00,,,0.00,meteohub,2013-10-04 21:41:00,
2013-10-04 17:42:00,71.4,67.3,29.98,South,190,3.0,9.0,87,0.00,,,0.00,meteohub,2013-10-04 21:42:00,
2013-10-04 17:43:00,71.4,67.3,29.98,SSW,194,5.0,9.0,87,0.00,,,0.00,meteohub,2013-10-04 21:43:00,
2013-10-04 17:45:00,71.4,67.3,29.98,WSW,257,4.0,9.0,87,0.00,,,0.00,meteohub,2013-10-04 21:45:00,
2013-10-04 17:46:00,71.4,67.3,29.98,SSW,205,5.0,9.0,87,0.00,,,0.00,meteohub,2013-10-04 21:46:00,
2013-10-04 17:48:00,71.4,67.3,29.98,WSW,246,4.0,9.0,87,0.00,,,0.00,meteohub,2013-10-04 21:48:00,
2013-10-04 17:50:00,71.4,67.3,29.98,SSW,197,5.0,9.0,87,0.00,,,0.00,meteohub,2013-10-04 21:50:00,
2013-10-04 17:51:00,71.4,67.3,29.98,SW,234,3.0,9.0,87,0.00,,,0.00,meteohub,2013-10-04 21:51:00,
2013-10-04 17:52:00,71.4,67.3,29.98,SSW,195,8.0,9.0,87,0.00,,,0.00,meteohub,2013-10-04 21:52:00,
2013-10-04 17:53:00,71.2,67.1,29.98,SW,225,5.0,9.0,87,0.00,,,0.00,meteohub,2013-10-04 21:53:00,
2013-10-04 17:55:00,71.2,67.1,29.98,SSW,211,4.0,9.0,87,0.00,,,0.00,meteohub,2013-10-04 21:55:00,
2013-10-04 17:56:00,71.2,67.1,29.98,SSW,203,4.0,9.0,87,0.00,,,0.00,meteohub,2013-10-04 21:56:00,
2013-10-04 17:57:00,71.2,67.1,29.98,SSW,199,7.0,9.0,87,0.00,,,0.00,meteohub,2013-10-04 21:57:00,
2013-10-04 18:00:00,71.2,67.1,29.98,SW,219,4.0,9.0,87,0.00,,,0.00,meteohub,2013-10-04 22:00:00,
2013-10-04 18:01:00,71.1,66.9,29.98,SSW,205,3.0,10.0,87,0.00,,,0.00,meteohub,2013-10-04 22:01:00,
2013-10-04 18:02:00,71.1,66.9,29.98,South,189,4.0,10.0,87,0.00,,,0.00,meteohub,2013-10-04 22:02:00,
2013-10-04 18:05:00,71.1,66.9,29.98,SSW,194,6.0,10.0,87,0.00,,,0.00,meteohub,2013-10-04 22:05:00,
2013-10-04 18:06:00,71.1,66.9,29.98,SW,216,3.0,10.0,87,0.00,,,0.00,meteohub,2013-10-04 22:06:00,
2013-10-04 18:07:00,71.1,66.9,29.98,SW,219,2.0,10.0,87,0.00,,,0.00,meteohub,2013-10-04 22:07:00,
2013-10-04 18:10:00,70.9,66.7,29.98,SSW,212,3.0,10.0,87,0.00,,,0.00,meteohub,2013-10-04 22:10:00,
2013-10-04 18:11:00,70.9,66.7,29.98,SW,215,3.0,10.0,87,0.00,,,0.00,meteohub,2013-10-04 22:11:00,
2013-10-04 18:12:00,70.9,66.7,29.98,SSW,194,5.0,10.0,87,0.00,,,0.00,meteohub,2013-10-04 22:12:00,
2013-10-04 18:13:00,70.9,66.7,29.98,SSW,207,6.0,10.0,87,0.00,,,0.00,meteohub,2013-10-04 22:13:00,
2013-10-04 18:16:00,70.7,66.6,29.98,SW,230,5.0,9.0,87,0.00,,,0.00,meteohub,2013-10-04 22:16:00,
2013-10-04 18:18:00,70.7,66.6,29.98,SW,232,3.0,9.0,87,0.00,,,0.00,meteohub,2013-10-04 22:18:00,
2013-10-04 18:19:00,70.5,66.4,29.98,West,267,2.0,9.0,87,0.00,,,0.00,meteohub,2013-10-04 22:19:00,
2013-10-04 18:21:00,70.5,66.7,29.98,SSW,210,7.0,10.0,88,0.00,,,0.00,meteohub,2013-10-04 22:21:00,
2013-10-04 18:22:00,70.5,66.7,29.98,SSW,209,5.0,10.0,88,0.00,,,0.00,meteohub,2013-10-04 22:22:00,
2013-10-04 18:23:00,70.5,66.7,29.98,SSW,198,4.0,10.0,88,0.00,,,0.00,meteohub,2013-10-04 22:23:00,
2013-10-04 18:24:00,70.5,66.7,29.98,SSW,194,4.0,10.0,88,0.00,,,0.00,meteohub,2013-10-04 22:24:00,
2013-10-04 18:25:00,70.5,66.7,29.98,West,262,7.0,10.0,88,0.00,,,0.00,meteohub,2013-10-04 22:25:00,
2013-10-04 18:26:00,70.3,66.6,29.98,SSW,201,5.0,10.0,88,0.00,,,0.00,meteohub,2013-10-04 22:26:00,
2013-10-04 18:27:00,70.3,66.6,29.98,WSW,242,3.0,10.0,88,0.00,,,0.00,meteohub,2013-10-04 22:27:00,
2013-10-04 18:28:00,70.3,66.6,29.98,SW,233,3.0,10.0,88,0.00,,,0.00,meteohub,2013-10-04 22:28:00,
2013-10-04 18:29:00,70.3,66.6,29.98,SSW,208,3.0,10.0,88,0.00,,,0.00,meteohub,2013-10-04 22:29:00,
2013-10-04 18:30:00,70.3,66.6,29.99,SSW,207,5.0,9.0,88,0.00,,,0.00,meteohub,2013-10-04 22:30:00,
2013-10-04 18:31:00,70.3,66.6,29.99,WSW,254,3.0,9.0,88,0.00,,,0.00,meteohub,2013-10-04 22:31:00,
2013-10-04 18:32:00,70.3,66.6,29.99,SSW,198,6.0,9.0,88,0.00,,,0.00,meteohub,2013-10-04 22:32:00,
2013-10-04 18:33:00,70.3,66.6,29.99,SW,226,4.0,9.0,88,0.00,,,0.00,meteohub,2013-10-04 22:33:00,
2013-10-04 18:35:00,70.3,66.6,29.99,SSW,208,2.0,9.0,88,0.00,,,0.00,meteohub,2013-10-04 22:35:00,
2013-10-04 18:37:00,70.3,66.6,29.99,SSW,208,1.0,9.0,88,0.00,,,0.00,meteohub,2013-10-04 22:37:00,
2013-10-04 18:39:00,70.3,66.9,29.99,SW,220,5.0,9.0,89,0.00,,,0.00,meteohub,2013-10-04 22:39:00,
2013-10-04 18:41:00,70.3,66.9,29.99,South,188,4.0,7.0,89,0.00,,,0.00,meteohub,2013-10-04 22:41:00,
2013-10-04 18:42:00,70.3,66.9,29.99,SW,225,2.0,7.0,89,0.00,,,0.00,meteohub,2013-10-04 22:42:00,
2013-10-04 18:44:00,70.3,66.9,29.99,SW,232,4.0,7.0,89,0.00,,,0.00,meteohub,2013-10-04 22:44:00,
2013-10-04 18:45:00,70.3,66.9,29.99,SSW,194,5.0,7.0,89,0.00,,,0.00,meteohub,2013-10-04 22:45:00,
2013-10-04 18:46:00,70.3,66.9,29.99,SSW,212,3.0,7.0,89,0.00,,,0.00,meteohub,2013-10-04 22:46:00,
2013-10-04 18:47:00,70.3,66.9,29.99,SW,232,2.0,7.0,89,0.00,,,0.00,meteohub,2013-10-04 22:47:00,
2013-10-04 18:49:00,70.2,66.7,29.99,SSW,205,4.0,7.0,89,0.00,,,0.00,meteohub,2013-10-04 22:49:00,
2013-10-04 18:50:00,70.2,66.7,29.99,SSW,199,5.0,9.0,89,0.00,,,0.00,meteohub,2013-10-04 22:50:00,
2013-10-04 18:51:00,70.2,66.7,29.99,SSW,195,3.0,9.0,89,0.00,,,0.00,meteohub,2013-10-04 22:51:00,
2013-10-04 18:52:00,70.2,66.7,29.99,SSW,205,4.0,9.0,89,0.00,,,0.00,meteohub,2013-10-04 22:52:00,
2013-10-04 18:54:00,70.2,66.7,29.99,South,191,4.0,9.0,89,0.00,,,0.00,meteohub,2013-10-04 22:54:00,
2013-10-04 18:55:00,70.2,66.7,29.99,SSW,194,4.0,9.0,89,0.00,,,0.00,meteohub,2013-10-04 22:55:00,
2013-10-04 18:56:00,70.2,66.7,29.99,South,183,3.0,9.0,89,0.00,,,0.00,meteohub,2013-10-04 22:56:00,
2013-10-04 18:57:00,70.2,66.7,29.99,SSW,192,5.0,9.0,89,0.00,,,0.00,meteohub,2013-10-04 22:57:00,
2013-10-04 18:58:00,70.2,66.7,29.99,SSW,196,4.0,9.0,89,0.00,,,0.00,meteohub,2013-10-04 22:58:00,
2013-10-04 18:59:00,70.2,66.7,29.99,SSW,199,5.0,9.0,89,0.00,,,0.00,meteohub,2013-10-04 22:59:00,
2013-10-04 19:00:00,70.0,66.6,29.99,South,169,4.0,9.0,89,0.00,,,0.00,meteohub,2013-10-04 23:00:00,
2013-10-04 19:02:00,70.0,66.6,29.99,SSW,192,5.0,9.0,89,0.00,,,0.00,meteohub,2013-10-04 23:02:00,
2013-10-04 19:03:00,70.0,66.6,29.99,SW,216,5.0,9.0,89,0.00,,,0.00,meteohub,2013-10-04 23:03:00,
2013-10-04 19:06:00,70.0,66.6,29.99,SW,230,2.0,9.0,89,0.00,,,0.00,meteohub,2013-10-04 23:06:00,
2013-10-04 19:08:00,70.0,66.6,29.99,SSW,212,4.0,9.0,89,0.00,,,0.00,meteohub,2013-10-04 23:08:00,
2013-10-04 19:09:00,70.0,66.6,29.99,SSW,209,5.0,9.0,89,0.00,,,0.00,meteohub,2013-10-04 23:09:00,
2013-10-04 19:11:00,70.2,66.7,29.99,West,276,2.0,10.0,89,0.00,,,0.00,meteohub,2013-10-04 23:11:00,
2013-10-04 19:13:00,70.2,66.7,29.99,SSW,201,4.0,10.0,89,0.00,,,0.00,meteohub,2013-10-04 23:13:00,
2013-10-04 19:14:00,70.2,66.7,29.99,SW,227,3.0,10.0,89,0.00,,,0.00,meteohub,2013-10-04 23:14:00,
2013-10-04 19:16:00,70.2,66.7,29.99,SSW,200,4.0,10.0,89,0.00,,,0.00,meteohub,2013-10-04 23:16:00,
2013-10-04 19:19:00,70.3,66.9,29.99,SSW,204,4.0,10.0,89,0.00,,,0.00,meteohub,2013-10-04 23:19:00,
2013-10-04 19:20:00,70.3,66.6,29.99,South,190,4.0,10.0,88,0.00,,,0.00,meteohub,2013-10-04 23:20:00,
2013-10-04 19:21:00,70.3,66.6,29.99,SW,224,2.0,10.0,88,0.00,,,0.00,meteohub,2013-10-04 23:21:00,
2013-10-04 19:24:00,70.5,66.7,29.99,SSW,211,5.0,10.0,88,0.00,,,0.00,meteohub,2013-10-04 23:24:00,
2013-10-04 19:25:00,70.5,66.7,29.99,WSW,249,5.0,8.0,88,0.00,,,0.00,meteohub,2013-10-04 23:25:00,
2013-10-04 19:26:00,70.5,66.7,29.99,SW,229,4.0,8.0,88,0.00,,,0.00,meteohub,2013-10-04 23:26:00,
2013-10-04 19:27:00,70.5,66.7,29.99,SSW,203,4.0,8.0,88,0.00,,,0.00,meteohub,2013-10-04 23:27:00,
2013-10-04 19:30:00,70.3,66.6,29.99,SW,221,3.0,8.0,88,0.00,,,0.00,meteohub,2013-10-04 23:30:00,
2013-10-04 19:31:00,70.3,66.6,29.99,WSW,237,5.0,9.0,88,0.00,,,0.00,meteohub,2013-10-04 23:31:00,
2013-10-04 19:32:00,70.3,66.6,29.99,SSW,208,3.0,9.0,88,0.00,,,0.00,meteohub,2013-10-04 23:32:00,
2013-10-04 19:33:00,70.3,66.6,29.99,WSW,237,2.0,9.0,88,0.00,,,0.00,meteohub,2013-10-04 23:33:00,
2013-10-04 19:35:00,70.3,66.6,29.99,SSW,199,2.0,9.0,88,0.00,,,0.00,meteohub,2013-10-04 23:35:00,
2013-10-04 19:36:00,70.3,66.6,29.99,SSW,208,2.0,9.0,88,0.00,,,0.00,meteohub,2013-10-04 23:36:00,
2013-10-04 19:37:00,70.3,66.6,29.99,SW,232,1.0,9.0,88,0.00,,,0.00,meteohub,2013-10-04 23:37:00,
2013-10-04 19:38:00,70.3,66.6,29.99,SSW,196,1.0,9.0,88,0.00,,,0.00,meteohub,2013-10-04 23:38:00,
2013-10-04 19:39:00,70.3,66.6,29.99,SSW,208,2.0,9.0,88,0.00,,,0.00,meteohub,2013-10-04 23:39:00,
2013-10-04 19:40:00,70.3,66.6,29.99,SSW,202,4.0,9.0,88,0.00,,,0.00,meteohub,2013-10-04 23:40:00,
2013-10-04 19:42:00,70.3,66.6,29.99,SSW,204,3.0,8.0,88,0.00,,,0.00,meteohub,2013-10-04 23:42:00,
2013-10-04 19:43:00,70.3,66.6,29.99,SSW,201,4.0,8.0,88,0.00,,,0.00,meteohub,2013-10-04 23:43:00,
2013-10-04 19:44:00,70.5,66.7,29.99,SSW,200,5.0,8.0,88,0.00,,,0.00,meteohub,2013-10-04 23:44:00,
2013-10-04 19:45:00,70.5,66.7,29.99,SSW,207,4.0,6.0,88,0.00,,,0.00,meteohub,2013-10-04 23:45:00,
2013-10-04 19:46:00,70.5,66.7,29.99,SSW,207,2.0,6.0,88,0.00,,,0.00,meteohub,2013-10-04 23:46:00,
2013-10-04 19:47:00,70.3,66.6,29.99,South,191,3.0,6.0,88,0.00,,,0.00,meteohub,2013-10-04 23:47:00,
2013-10-04 19:48:00,70.3,66.6,29.99,SSW,202,3.0,6.0,88,0.00,,,0.00,meteohub,2013-10-04 23:48:00,
2013-10-04 19:49:00,70.3,66.6,29.99,SSW,196,6.0,6.0,88,0.00,,,0.00,meteohub,2013-10-04 23:49:00,
2013-10-04 19:50:00,70.3,66.6,29.99,SSW,205,6.0,6.0,88,0.00,,,0.00,meteohub,2013-10-04 23:50:00,
2013-10-04 19:51:00,70.3,66.6,29.99,SSW,202,4.0,6.0,88,0.00,,,0.00,meteohub,2013-10-04 23:51:00,
2013-10-04 19:52:00,70.3,66.6,29.99,SSW,197,3.0,6.0,88,0.00,,,0.00,meteohub,2013-10-04 23:52:00,
2013-10-04 19:53:00,70.3,66.6,29.99,SW,214,3.0,6.0,88,0.00,,,0.00,meteohub,2013-10-04 23:53:00,
2013-10-04 19:55:00,70.3,66.6,29.99,SSW,213,4.0,9.0,88,0.00,,,0.00,meteohub,2013-10-04 23:55:00,
2013-10-04 19:56:00,70.3,66.6,29.99,South,190,3.0,9.0,88,0.00,,,0.00,meteohub,2013-10-04 23:56:00,
2013-10-04 19:57:00,70.2,66.4,29.99,SSW,203,3.0,9.0,88,0.00,,,0.00,meteohub,2013-10-04 23:57:00,
2013-10-04 19:59:00,70.2,66.4,29.99,SSW,192,3.0,9.0,88,0.00,,,0.00,meteohub,2013-10-04 23:59:00,
2013-10-04 20:01:00,70.2,66.4,29.99,SSW,206,6.0,9.0,88,0.00,,,0.00,meteohub,2013-10-05 00:01:00,
2013-10-04 20:02:00,70.2,66.4,29.99,SSW,211,4.0,9.0,88,0.00,,,0.00,meteohub,2013-10-05 00:02:00,
2013-10-04 20:04:00,70.2,66.4,29.99,SSW,203,3.0,9.0,88,0.00,,,0.00,meteohub,2013-10-05 00:04:00,
2013-10-04 20:05:00,70.2,66.4,29.99,SW,217,3.0,9.0,88,0.00,,,0.00,meteohub,2013-10-05 00:05:00,
2013-10-04 20:06:00,70.0,66.2,29.99,SSW,192,3.0,8.0,88,0.00,,,0.00,meteohub,2013-10-05 00:06:00,
2013-10-04 20:07:00,70.0,66.2,29.99,SW,232,3.0,8.0,88,0.00,,,0.00,meteohub,2013-10-05 00:07:00,
2013-10-04 20:09:00,70.0,66.2,29.99,SW,231,2.0,8.0,88,0.00,,,0.00,meteohub,2013-10-05 00:09:00,
2013-10-04 20:10:00,70.0,66.2,29.99,SSW,198,1.0,8.0,88,0.00,,,0.00,meteohub,2013-10-05 00:10:00,
2013-10-04 20:11:00,70.0,66.2,29.99,SSW,213,2.0,7.0,88,0.00,,,0.00,meteohub,2013-10-05 00:11:00,
2013-10-04 20:12:00,70.0,66.2,29.99,SSW,206,2.0,7.0,88,0.00,,,0.00,meteohub,2013-10-05 00:12:00,
2013-10-04 20:14:00,70.0,66.2,29.99,SSW,207,2.0,7.0,88,0.00,,,0.00,meteohub,2013-10-05 00:14:00,
2013-10-04 20:15:00,70.0,66.2,29.99,SSW,209,1.0,7.0,88,0.00,,,0.00,meteohub,2013-10-05 00:15:00,
2013-10-04 20:16:00,70.0,66.2,29.99,SW,218,1.0,6.0,88,0.00,,,0.00,meteohub,2013-10-05 00:16:00,
2013-10-04 20:17:00,70.0,66.2,29.99,SW,217,3.0,6.0,88,0.00,,,0.00,meteohub,2013-10-05 00:17:00,
2013-10-04 20:18:00,70.0,66.2,29.99,SSW,207,4.0,6.0,88,0.00,,,0.00,meteohub,2013-10-05 00:18:00,
2013-10-04 20:19:00,70.2,66.4,29.99,SW,227,3.0,6.0,88,0.00,,,0.00,meteohub,2013-10-05 00:19:00,
2013-10-04 20:20:00,70.2,66.4,29.99,WSW,253,8.0,8.0,88,0.00,,,0.00,meteohub,2013-10-05 00:20:00,
2013-10-04 20:21:00,70.2,66.4,29.99,West,261,3.0,6.0,88,0.00,,,0.00,meteohub,2013-10-05 00:21:00,
2013-10-04 20:23:00,70.2,66.4,30.00,SW,235,6.0,6.0,88,0.00,,,0.00,meteohub,2013-10-05 00:23:00,
2013-10-04 20:24:00,70.3,66.2,29.99,SSW,210,4.0,6.0,87,0.00,,,0.00,meteohub,2013-10-05 00:24:00,
2013-10-04 20:25:00,70.3,66.2,29.99,SW,234,4.0,8.0,87,0.00,,,0.00,meteohub,2013-10-05 00:25:00,
2013-10-04 20:26:00,70.5,66.4,30.00,SW,229,1.0,8.0,87,0.00,,,0.00,meteohub,2013-10-05 00:26:00,
2013-10-04 20:27:00,70.5,66.2,30.00,WSW,240,5.0,8.0,86,0.00,,,0.00,meteohub,2013-10-05 00:27:00,
2013-10-04 20:28:00,70.7,66.4,29.99,WSW,242,2.0,8.0,86,0.00,,,0.00,meteohub,2013-10-05 00:28:00,
2013-10-04 20:30:00,71.1,66.7,30.00,WSW,254,2.0,8.0,86,0.00,,,0.00,meteohub,2013-10-05 00:30:00,
2013-10-04 20:31:00,71.1,66.4,30.00,WSW,242,2.0,8.0,85,0.00,,,0.00,meteohub,2013-10-05 00:31:00,
2013-10-04 20:32:00,71.2,66.6,30.00,SW,220,2.0,8.0,85,0.00,,,0.00,meteohub,2013-10-05 00:32:00,
2013-10-04 20:33:00,71.2,66.6,30.00,SW,216,6.0,8.0,85,0.00,,,0.00,meteohub,2013-10-05 00:33:00,
2013-10-04 20:35:00,71.4,66.4,30.00,WSW,245,3.0,8.0,84,0.00,,,0.00,meteohub,2013-10-05 00:35:00,
2013-10-04 20:36:00,71.4,66.4,30.00,WSW,239,6.0,8.0,84,0.00,,,0.00,meteohub,2013-10-05 00:36:00,
2013-10-04 20:37:00,71.6,66.6,30.00,WSW,244,3.0,8.0,84,0.00,,,0.00,meteohub,2013-10-05 00:37:00,
2013-10-04 20:39:00,71.8,66.7,30.00,WSW,240,2.0,8.0,84,0.00,,,0.00,meteohub,2013-10-05 00:39:00,
2013-10-04 20:40:00,71.8,66.7,30.00,WSW,256,4.0,8.0,84,0.00,,,0.00,meteohub,2013-10-05 00:40:00,
2013-10-04 20:41:00,72.0,66.9,30.00,SSW,211,5.0,8.0,84,0.00,,,0.00,meteohub,2013-10-05 00:41:00,
2013-10-04 20:42:00,72.0,66.9,30.00,West,262,7.0,8.0,84,0.00,,,0.00,meteohub,2013-10-05 00:42:00,
2013-10-04 20:43:00,72.0,66.9,30.00,WSW,246,2.0,8.0,84,0.00,,,0.00,meteohub,2013-10-05 00:43:00,
2013-10-04 20:44:00,72.0,66.9,30.00,SSW,208,3.0,8.0,84,0.00,,,0.00,meteohub,2013-10-05 00:44:00,
2013-10-04 20:45:00,72.1,67.1,30.00,WSW,242,4.0,10.0,84,0.00,,,0.00,meteohub,2013-10-05 00:45:00,
2013-10-04 20:46:00,72.1,67.1,30.00,SW,232,2.0,10.0,84,0.00,,,0.00,meteohub,2013-10-05 00:46:00,
2013-10-04 20:48:00,72.1,67.1,30.00,SW,219,3.0,10.0,84,0.00,,,0.00,meteohub,2013-10-05 00:48:00,
2013-10-04 20:50:00,72.1,67.1,30.00,SW,219,6.0,10.0,84,0.00,,,0.00,meteohub,2013-10-05 00:50:00,
2013-10-04 20:52:00,72.0,66.9,30.00,WSW,250,5.0,10.0,84,0.00,,,0.00,meteohub,2013-10-05 00:52:00,
2013-10-04 20:53:00,72.0,66.9,30.00,SSW,211,3.0,10.0,84,0.00,,,0.00,meteohub,2013-10-05 00:53:00,
2013-10-04 20:55:00,72.0,66.9,30.00,SW,217,4.0,10.0,84,0.00,,,0.00,meteohub,2013-10-05 00:55:00,
2013-10-04 20:57:00,72.0,67.3,30.00,SW,225,3.0,10.0,85,0.00,,,0.00,meteohub,2013-10-05 00:57:00,
2013-10-04 20:58:00,72.0,67.3,30.00,WSW,255,4.0,10.0,85,0.00,,,0.00,meteohub,2013-10-05 00:58:00,
2013-10-04 20:59:00,72.0,67.3,30.00,WSW,254,3.0,10.0,85,0.00,,,0.00,meteohub,2013-10-05 00:59:00,
2013-10-04 21:01:00,72.0,67.3,30.00,WSW,244,8.0,9.0,85,0.00,,,0.00,meteohub,2013-10-05 01:01:00,
2013-10-04 21:02:00,72.0,67.3,30.00,SW,215,3.0,9.0,85,0.00,,,0.00,meteohub,2013-10-05 01:02:00,
2013-10-04 21:04:00,71.8,67.3,30.00,WSW,252,5.0,9.0,86,0.00,,,0.00,meteohub,2013-10-05 01:04:00,
2013-10-04 21:05:00,72.0,67.5,30.00,SW,233,3.0,9.0,86,0.00,,,0.00,meteohub,2013-10-05 01:05:00,
2013-10-04 21:06:00,71.8,67.3,30.00,SW,219,4.0,9.0,86,0.00,,,0.00,meteohub,2013-10-05 01:06:00,
2013-10-04 21:07:00,71.8,67.3,30.01,WSW,243,5.0,9.0,86,0.00,,,0.00,meteohub,2013-10-05 01:07:00,
2013-10-04 21:08:00,71.8,67.3,30.00,WSW,246,4.0,9.0,86,0.00,,,0.00,meteohub,2013-10-05 01:08:00,
2013-10-04 21:09:00,71.8,67.3,30.01,SW,217,2.0,9.0,86,0.00,,,0.00,meteohub,2013-10-05 01:09:00,
2013-10-04 21:10:00,71.8,67.3,30.00,West,263,2.0,9.0,86,0.00,,,0.00,meteohub,2013-10-05 01:10:00,
2013-10-04 21:11:00,71.6,67.1,30.01,WSW,239,3.0,9.0,86,0.00,,,0.00,meteohub,2013-10-05 01:11:00,
2013-10-04 21:12:00,71.6,67.5,30.01,WSW,238,4.0,9.0,87,0.00,,,0.00,meteohub,2013-10-05 01:12:00,
2013-10-04 21:14:00,71.6,67.5,30.01,SW,236,4.0,9.0,87,0.00,,,0.00,meteohub,2013-10-05 01:14:00,
2013-10-04 21:16:00,71.4,67.3,30.01,SW,220,4.0,9.0,87,0.00,,,0.00,meteohub,2013-10-05 01:16:00,
2013-10-04 21:17:00,71.4,67.3,30.01,SW,227,4.0,9.0,87,0.00,,,0.00,meteohub,2013-10-05 01:17:00,
2013-10-04 21:19:00,71.4,67.3,30.01,SW,235,3.0,9.0,87,0.00,,,0.00,meteohub,2013-10-05 01:19:00,
2013-10-04 21:20:00,71.4,67.3,30.01,SW,229,3.0,9.0,87,0.00,,,0.00,meteohub,2013-10-05 01:20:00,
2013-10-04 21:22:00,71.4,67.3,30.01,WSW,242,3.0,7.0,87,0.00,,,0.00,meteohub,2013-10-05 01:22:00,
2013-10-04 21:23:00,71.2,67.5,30.01,West,267,6.0,7.0,88,0.00,,,0.00,meteohub,2013-10-05 01:23:00,
2013-10-04 21:25:00,71.2,67.5,30.01,WSW,248,3.0,7.0,88,0.00,,,0.00,meteohub,2013-10-05 01:25:00,
2013-10-04 21:27:00,71.2,67.5,30.01,SW,234,4.0,7.0,88,0.00,,,0.00,meteohub,2013-10-05 01:27:00,
2013-10-04 21:28:00,71.1,67.3,30.01,WSW,238,6.0,7.0,88,0.00,,,0.00,meteohub,2013-10-05 01:28:00,
2013-10-04 21:30:00,71.1,67.3,30.01,South,190,6.0,7.0,88,0.00,,,0.00,meteohub,2013-10-05 01:30:00,
2013-10-04 21:31:00,71.1,67.3,30.01,WSW,251,3.0,7.0,88,0.00,,,0.00,meteohub,2013-10-05 01:31:00,
2013-10-04 21:33:00,71.1,67.6,30.01,SW,225,4.0,7.0,89,0.00,,,0.00,meteohub,2013-10-05 01:33:00,
2013-10-04 21:34:00,71.1,67.6,30.01,WSW,245,3.0,7.0,89,0.00,,,0.00,meteohub,2013-10-05 01:34:00,
2013-10-04 21:35:00,71.1,67.6,30.01,West,262,6.0,7.0,89,0.00,,,0.00,meteohub,2013-10-05 01:35:00,
2013-10-04 21:36:00,71.1,67.6,30.01,SW,225,3.0,7.0,89,0.00,,,0.00,meteohub,2013-10-05 01:36:00,
2013-10-04 21:39:00,71.1,67.6,30.01,SW,223,1.0,7.0,89,0.00,,,0.00,meteohub,2013-10-05 01:39:00,
2013-10-04 21:40:00,71.1,67.6,30.01,SW,223,1.0,7.0,89,0.00,,,0.00,meteohub,2013-10-05 01:40:00,
2013-10-04 21:41:00,71.1,67.6,30.01,WSW,252,3.0,7.0,89,0.00,,,0.00,meteohub,2013-10-05 01:41:00,
2013-10-04 21:42:00,71.1,67.6,30.01,SW,233,2.0,7.0,89,0.00,,,0.00,meteohub,2013-10-05 01:42:00,
2013-10-04 21:45:00,70.9,67.5,30.01,West,266,3.0,7.0,89,0.00,,,0.00,meteohub,2013-10-05 01:45:00,
2013-10-04 21:46:00,71.1,67.6,30.01,West,263,1.0,7.0,89,0.00,,,0.00,meteohub,2013-10-05 01:46:00,
2013-10-04 21:47:00,70.9,67.5,30.02,WSW,243,2.0,7.0,89,0.00,,,0.00,meteohub,2013-10-05 01:47:00,
2013-10-04 21:50:00,71.1,67.6,30.01,WSW,255,3.0,6.0,89,0.00,,,0.00,meteohub,2013-10-05 01:50:00,
2013-10-04 21:51:00,71.1,67.6,30.02,SW,235,2.0,6.0,89,0.00,,,0.00,meteohub,2013-10-05 01:51:00,
2013-10-04 21:52:00,71.1,67.6,30.01,SW,232,4.0,6.0,89,0.00,,,0.00,meteohub,2013-10-05 01:52:00,
2013-10-04 21:53:00,71.1,67.6,30.02,SW,234,3.0,6.0,89,0.00,,,0.00,meteohub,2013-10-05 01:53:00,
2013-10-04 21:56:00,71.1,67.6,30.02,WSW,246,2.0,7.0,89,0.00,,,0.00,meteohub,2013-10-05 01:56:00,
2013-10-04 21:57:00,71.1,68.0,30.02,WSW,242,2.0,7.0,90,0.00,,,0.00,meteohub,2013-10-05 01:57:00,
2013-10-04 21:58:00,71.1,68.0,30.02,WSW,246,2.0,7.0,90,0.00,,,0.00,meteohub,2013-10-05 01:58:00,
2013-10-04 21:59:00,71.1,68.0,30.02,WSW,247,3.0,7.0,90,0.00,,,0.00,meteohub,2013-10-05 01:59:00,
2013-10-04 22:01:00,71.1,68.0,30.01,WSW,244,3.0,7.0,90,0.00,,,0.00,meteohub,2013-10-05 02:01:00,
2013-10-04 22:02:00,71.1,68.0,30.02,WSW,248,3.0,7.0,90,0.00,,,0.00,meteohub,2013-10-05 02:02:00,
2013-10-04 22:03:00,71.1,68.0,30.01,WSW,244,4.0,7.0,90,0.00,,,0.00,meteohub,2013-10-05 02:03:00,
2013-10-04 22:05:00,71.1,68.0,30.02,WSW,253,4.0,7.0,90,0.00,,,0.00,meteohub,2013-10-05 02:05:00,
2013-10-04 22:07:00,71.2,68.2,30.01,WSW,241,5.0,6.0,90,0.00,,,0.00,meteohub,2013-10-05 02:07:00,
2013-10-04 22:08:00,71.2,68.2,30.01,WSW,246,4.0,6.0,90,0.00,,,0.00,meteohub,2013-10-05 02:08:00,
2013-10-04 22:10:00,71.2,68.2,30.01,SW,233,3.0,9.0,90,0.00,,,0.00,meteohub,2013-10-05 02:10:00,
2013-10-04 22:12:00,71.2,68.2,30.02,WSW,245,7.0,9.0,90,0.00,,,0.00,meteohub,2013-10-05 02:12:00,
2013-10-04 22:13:00,71.2,68.2,30.01,WSW,248,7.0,9.0,90,0.00,,,0.00,meteohub,2013-10-05 02:13:00,
2013-10-04 22:14:00,71.2,68.2,30.01,SW,217,6.0,9.0,90,0.00,,,0.00,meteohub,2013-10-05 02:14:00,
2013-10-04 22:15:00,71.2,68.2,30.01,SSW,211,4.0,9.0,90,0.00,,,0.00,meteohub,2013-10-05 02:15:00,
2013-10-04 22:17:00,71.2,68.2,30.01,SW,225,3.0,9.0,90,0.00,,,0.00,meteohub,2013-10-05 02:17:00,
2013-10-04 22:18:00,71.2,68.2,30.01,SSW,200,1.0,9.0,90,0.00,,,0.00,meteohub,2013-10-05 02:18:00,
2013-10-04 22:19:00,71.2,68.2,30.01,WSW,239,4.0,9.0,90,0.00,,,0.00,meteohub,2013-10-05 02:19:00,
2013-10-04 22:20:00,71.2,68.2,30.01,WSW,256,5.0,9.0,90,0.00,,,0.00,meteohub,2013-10-05 02:20:00,
2013-10-04 22:21:00,71.2,68.2,30.01,SW,216,4.0,9.0,90,0.00,,,0.00,meteohub,2013-10-05 02:21:00,
2013-10-04 22:22:00,71.2,68.2,30.01,WSW,251,5.0,9.0,90,0.00,,,0.00,meteohub,2013-10-05 02:22:00,
2013-10-04 22:23:00,71.2,68.2,30.01,SW,236,4.0,9.0,90,0.00,,,0.00,meteohub,2013-10-05 02:23:00,
2013-10-04 22:25:00,71.2,68.5,30.01,WSW,243,2.0,9.0,91,0.00,,,0.00,meteohub,2013-10-05 02:25:00,
2013-10-04 22:26:00,71.2,68.5,30.01,WSW,240,4.0,9.0,91,0.00,,,0.00,meteohub,2013-10-05 02:26:00,
2013-10-04 22:28:00,71.2,68.5,30.01,WSW,252,4.0,9.0,91,0.00,,,0.00,meteohub,2013-10-05 02:28:00,
2013-10-04 22:30:00,71.2,68.5,30.01,West,263,7.0,9.0,91,0.00,,,0.00,meteohub,2013-10-05 02:30:00,
2013-10-04 22:31:00,71.2,68.5,30.01,WSW,251,4.0,9.0,91,0.00,,,0.00,meteohub,2013-10-05 02:31:00,
2013-10-04 22:34:00,71.2,68.5,30.01,WSW,255,7.0,9.0,91,0.00,,,0.00,meteohub,2013-10-05 02:34:00,
2013-10-04 22:35:00,71.2,68.5,30.01,WSW,238,3.0,9.0,91,0.00,,,0.00,meteohub,2013-10-05 02:35:00,
2013-10-04 22:36:00,71.1,68.4,30.01,WSW,251,4.0,9.0,91,0.00,,,0.00,meteohub,2013-10-05 02:36:00,
2013-10-04 22:37:00,71.1,68.4,30.01,SW,233,4.0,9.0,91,0.00,,,0.00,meteohub,2013-10-05 02:37:00,
2013-10-04 22:39:00,71.1,68.4,30.01,WSW,243,4.0,9.0,91,0.00,,,0.00,meteohub,2013-10-05 02:39:00,
2013-10-04 22:41:00,71.1,68.4,30.01,SW,217,4.0,9.0,91,0.00,,,0.00,meteohub,2013-10-05 02:41:00,
2013-10-04 22:42:00,71.1,68.4,30.01,West,259,6.0,9.0,91,0.00,,,0.00,meteohub,2013-10-05 02:42:00,
2013-10-04 22:44:00,71.1,68.4,30.01,WSW,249,5.0,9.0,91,0.00,,,0.00,meteohub,2013-10-05 02:44:00,
2013-10-04 22:46:00,71.1,68.4,30.01,West,266,4.0,8.0,91,0.00,,,0.00,meteohub,2013-10-05 02:46:00,
2013-10-04 22:47:00,71.1,68.4,30.01,WSW,246,7.0,8.0,91,0.00,,,0.00,meteohub,2013-10-05 02:47:00,
2013-10-04 22:48:00,71.1,68.4,30.01,WSW,246,4.0,8.0,91,0.00,,,0.00,meteohub,2013-10-05 02:48:00,
2013-10-04 22:50:00,71.1,68.4,30.01,SSW,194,3.0,8.0,91,0.00,,,0.00,meteohub,2013-10-05 02:50:00,
2013-10-04 22:52:00,70.9,68.2,30.01,SW,234,5.0,8.0,91,0.00,,,0.00,meteohub,2013-10-05 02:52:00,
2013-10-04 22:53:00,70.9,68.2,30.01,SW,233,3.0,8.0,91,0.00,,,0.00,meteohub,2013-10-05 02:53:00,
2013-10-04 22:54:00,70.9,68.2,30.01,WSW,238,3.0,8.0,91,0.00,,,0.00,meteohub,2013-10-05 02:54:00,
2013-10-04 22:55:00,70.9,68.2,30.01,SW,230,2.0,8.0,91,0.00,,,0.00,meteohub,2013-10-05 02:55:00,
2013-10-04 22:57:00,70.9,68.2,30.01,WSW,246,4.0,8.0,91,0.00,,,0.00,meteohub,2013-10-05 02:57:00,
2013-10-04 22:58:00,70.9,68.2,30.01,West,259,1.0,8.0,91,0.00,,,0.00,meteohub,2013-10-05 02:58:00,
2013-10-04 22:59:00,70.9,68.2,30.01,West,270,3.0,8.0,91,0.00,,,0.00,meteohub,2013-10-05 02:59:00,
2013-10-04 23:00:00,70.9,68.2,30.01,WSW,245,2.0,7.0,91,0.00,,,0.00,meteohub,2013-10-05 03:00:00,
2013-10-04 23:03:00,70.7,68.0,30.01,WSW,248,3.0,7.0,91,0.00,,,0.00,meteohub,2013-10-05 03:03:00,
2013-10-04 23:04:00,70.7,68.0,30.01,West,261,1.0,7.0,91,0.00,,,0.00,meteohub,2013-10-05 03:04:00,
2013-10-04 23:06:00,70.7,68.0,30.01,WSW,246,2.0,7.0,91,0.00,,,0.00,meteohub,2013-10-05 03:06:00,
2013-10-04 23:08:00,70.5,67.8,30.01,WSW,257,3.0,7.0,91,0.00,,,0.00,meteohub,2013-10-05 03:08:00,
2013-10-04 23:09:00,70.5,67.8,30.01,WSW,257,2.0,7.0,91,0.00,,,0.00,meteohub,2013-10-05 03:09:00,
2013-10-04 23:10:00,70.5,67.8,30.01,WSW,241,2.0,7.0,91,0.00,,,0.00,meteohub,2013-10-05 03:10:00,
2013-10-04 23:11:00,70.5,67.8,30.01,WSW,250,3.0,7.0,91,0.00,,,0.00,meteohub,2013-10-05 03:11:00,
2013-10-04 23:13:00,70.3,67.6,30.01,WSW,240,3.0,7.0,91,0.00,,,0.00,meteohub,2013-10-05 03:13:00,
2013-10-04 23:14:00,70.3,67.6,30.01,SW,227,2.0,7.0,91,0.00,,,0.00,meteohub,2013-10-05 03:14:00,
2013-10-04 23:15:00,70.3,67.6,30.01,SW,223,3.0,7.0,91,0.00,,,0.00,meteohub,2013-10-05 03:15:00,
2013-10-04 23:16:00,70.3,67.6,30.01,SW,215,2.0,7.0,91,0.00,,,0.00,meteohub,2013-10-05 03:16:00,
2013-10-04 23:19:00,70.3,67.6,30.01,WSW,241,4.0,7.0,91,0.00,,,0.00,meteohub,2013-10-05 03:19:00,
2013-10-04 23:20:00,70.3,67.6,30.01,WSW,242,3.0,7.0,91,0.00,,,0.00,meteohub,2013-10-05 03:20:00,
2013-10-04 23:21:00,70.3,67.6,30.01,WSW,240,2.0,7.0,91,0.00,,,0.00,meteohub,2013-10-05 03:21:00,
2013-10-04 23:24:00,70.3,67.3,30.01,WSW,240,3.0,7.0,90,0.00,,,0.00,meteohub,2013-10-05 03:24:00,
2013-10-04 23:26:00,70.3,67.3,30.01,West,267,3.0,7.0,90,0.00,,,0.00,meteohub,2013-10-05 03:26:00,
2013-10-04 23:27:00,70.3,67.3,30.01,WSW,247,2.0,7.0,90,0.00,,,0.00,meteohub,2013-10-05 03:27:00,
2013-10-04 23:30:00,70.3,67.3,30.01,SW,221,5.0,6.0,90,0.00,,,0.00,meteohub,2013-10-05 03:30:00,
2013-10-04 23:31:00,70.3,67.3,30.01,WSW,242,3.0,6.0,90,0.00,,,0.00,meteohub,2013-10-05 03:31:00,
2013-10-04 23:32:00,70.3,67.3,30.01,West,270,3.0,6.0,90,0.00,,,0.00,meteohub,2013-10-05 03:32:00,
2013-10-04 23:35:00,70.3,67.3,30.01,West,261,1.0,6.0,90,0.00,,,0.00,meteohub,2013-10-05 03:35:00,
2013-10-04 23:36:00,70.3,67.3,30.01,SW,217,2.0,6.0,90,0.00,,,0.00,meteohub,2013-10-05 03:36:00,
2013-10-04 23:37:00,70.3,67.3,30.01,SW,236,2.0,6.0,90,0.00,,,0.00,meteohub,2013-10-05 03:37:00,
2013-10-04 23:38:00,70.3,67.3,30.01,WSW,238,3.0,6.0,90,0.00,,,0.00,meteohub,2013-10-05 03:38:00,
2013-10-04 23:40:00,70.3,67.3,30.01,WSW,240,4.0,6.0,90,0.00,,,0.00,meteohub,2013-10-05 03:40:00,
2013-10-04 23:41:00,70.3,67.3,30.01,WSW,252,1.0,6.0,90,0.00,,,0.00,meteohub,2013-10-05 03:41:00,
2013-10-04 23:42:00,70.3,67.3,30.01,SW,235,4.0,6.0,90,0.00,,,0.00,meteohub,2013-10-05 03:42:00,
2013-10-04 23:43:00,70.3,67.3,30.01,SW,236,2.0,6.0,90,0.00,,,0.00,meteohub,2013-10-05 03:43:00,
2013-10-04 23:46:00,70.3,67.3,30.00,SW,235,1.0,5.0,90,0.00,,,0.00,meteohub,2013-10-05 03:46:00,
2013-10-04 23:47:00,70.3,67.3,30.00,SW,234,3.0,5.0,90,0.00,,,0.00,meteohub,2013-10-05 03:47:00,
2013-10-04 23:48:00,70.3,67.3,30.00,SW,234,3.0,5.0,90,0.00,,,0.00,meteohub,2013-10-05 03:48:00,
2013-10-04 23:50:00,70.3,67.3,30.01,WSW,245,2.0,5.0,90,0.00,,,0.00,meteohub,2013-10-05 03:50:00,
2013-10-04 23:52:00,70.3,67.3,30.00,WSW,242,5.0,5.0,90,0.00,,,0.00,meteohub,2013-10-05 03:52:00,
2013-10-04 23:53:00,70.3,67.3,30.00,WSW,243,5.0,5.0,90,0.00,,,0.00,meteohub,2013-10-05 03:53:00,
2013-10-04 23:55:00,70.3,67.3,30.00,WSW,240,3.0,5.0,90,0.00,,,0.00,meteohub,2013-10-05 03:55:00,
2013-10-04 23:57:00,70.3,67.3,30.01,SW,236,2.0,5.0,90,0.00,,,0.00,meteohub,2013-10-05 03:57:00,
2013-10-04 23:58:00,70.3,67.3,30.01,WSW,244,3.0,5.0,90,0.00,,,0.00,meteohub,2013-10-05 03:58:00,